GFSMA_prec_precacc12_105.txt.gz
Total_Precipitation_Accumulation
0.00 0.00 0.00 0.00 0.00 0.00 0.00 0.00 0.00 0.00 0.00 0.00 0.00 0.00 0.00 0.00 0.00 0.00 0.00 0.00 0.00 0.00 0.00 0.00 0.00 0.00 0.00 0.00 0.00 0.00 0.00 0.00 0.00 0.00 0.00 0.00 0.00 0.00 0.00 0.00 0.00 0.00 0.00
0.00 0.00 0.00 0.00 0.00 0.00 0.00 0.00 0.00 0.00 0.00 0.00 0.00 0.00 0.00 0.00 0.00 0.00 0.00 0.00 0.00 0.00 0.00 0.00 0.00 0.00 0.00 0.00 0.00 0.00 0.00 0.00 0.00 0.00 0.00 0.00 0.00 0.00 0.00 0.00 0.00 0.00 0.00
0.00 0.00 0.00 0.00 0.00 0.00 0.00 0.00 0.00 0.00 0.00 0.00 0.00 0.00 0.00 0.00 0.00 0.00 0.00 0.00 0.00 0.00 0.00 0.00 0.02 0.05 0.03 0.00 0.01 0.00 0.00 0.00 0.00 0.00 0.00 0.00 0.00 0.00 0.00 0.00 0.00 0.00 0.00
0.00 0.00 0.00 0.00 0.00 0.00 0.00 0.00 0.00 0.00 0.00 0.00 0.00 0.00 0.00 0.00 0.00 0.00 0.00 0.00 0.00 0.00 0.00 0.00 0.02 0.07 0.11 0.08 0.12 0.14 0.06 0.00 0.00 0.00 0.00 0.00 0.00 0.00 0.00 0.00 0.00 0.00 0.00
0.00 0.00 0.00 0.00 0.00 0.00 0.00 0.00 0.00 0.00 0.00 0.00 0.00 0.00 0.00 0.00 0.00 0.00 0.00 0.00 0.00 0.00 0.00 0.00 0.00 0.01 0.03 0.06 0.11 0.21 0.36 0.19 0.01 0.00 0.00 0.00 0.00 0.00 0.00 0.00 0.00 0.00 0.00
0.00 0.00 0.00 0.00 0.00 0.00 0.00 0.00 0.00 0.00 0.00 0.00 0.00 0.00 0.00 0.00 0.00 0.00 0.00 0.00 0.00 0.00 0.00 0.00 0.00 0.00 0.00 0.00 0.03 0.07 0.19 0.45 0.28 0.07 0.01 0.00 0.00 0.00 0.00 0.00 0.00 0.00 0.00
0.00 0.00 0.00 0.00 0.00 0.00 0.00 0.00 0.00 0.00 0.00 0.00 0.00 0.00 0.00 0.00 0.00 0.00 0.00 0.00 0.00 0.00 0.00 0.00 0.00 0.00 0.00 0.00 0.00 0.00 0.05 0.13 0.20 0.30 0.24 0.16 0.06 0.00 0.00 0.00 0.00 0.00 0.00
0.05 0.03 0.03 0.02 0.00 0.00 0.00 0.00 0.00 0.00 0.00 0.00 0.00 0.00 0.00 0.00 0.00 0.00 0.00 0.00 0.00 0.00 0.00 0.00 0.00 0.00 0.00 0.00 0.00 0.00 0.00 0.00 0.01 0.07 0.19 0.23 0.28 0.15 0.02 0.00 0.00 0.00 0.00
0.44 0.32 0.23 0.21 0.14 0.09 0.12 0.15 0.12 0.10 0.10 0.09 0.06 0.03 0.02 0.01 0.01 0.01 0.03 0.02 0.03 0.03 0.02 0.00 0.00 0.00 0.00 0.00 0.00 0.00 0.00 0.00 0.00 0.00 0.04 0.12 0.16 0.21 0.17 0.07 0.01 0.00 0.00
0.38 0.50 0.60 0.62 0.56 0.37 0.34 0.34 0.32 0.37 0.40 0.41 0.30 0.26 0.23 0.14 0.10 0.05 0.02 0.01 0.00 0.00 0.00 0.00 0.00 0.00 0.00 0.00 0.00 0.00 0.00 0.00 0.00 0.00 0.00 0.06 0.17 0.19 0.23 0.25 0.15 0.06 0.02
0.34 0.28 0.32 0.47 0.55 0.53 0.58 0.71 0.75 0.66 0.41 0.31 0.28 0.22 0.20 0.19 0.18 0.20 0.12 0.03 0.01 0.00 0.00 0.01 0.00 0.00 0.00 0.00 0.00 0.00 0.00 0.00 0.00 0.00 0.00 0.01 0.05 0.16 0.23 0.36 0.46 0.32 0.10
0.49 0.44 0.46 0.45 0.43 0.47 0.42 0.46 0.47 0.42 0.35 0.25 0.22 0.22 0.18 0.18 0.13 0.14 0.13 0.06 0.02 0.01 0.00 0.00 0.00 0.00 0.00 0.00 0.00 0.00 0.00 0.00 0.00 0.00 0.02 0.10 0.06 0.06 0.22 0.48 0.57 0.64 0.40
0.15 0.14 0.14 0.21 0.21 0.20 0.16 0.12 0.10 0.10 0.10 0.09 0.09 0.09 0.07 0.08 0.09 0.09 0.08 0.06 0.03 0.02 0.01 0.00 0.00 0.00 0.00 0.00 0.00 0.00 0.00 0.00 0.01 0.04 0.14 0.13 0.04 0.04 0.11 0.13 0.16 0.51 0.42
0.02 0.02 0.02 0.03 0.03 0.04 0.04 0.04 0.04 0.05 0.06 0.06 0.07 0.09 0.10 0.10 0.09 0.08 0.06 0.05 0.02 0.01 0.01 0.00 0.00 0.00 0.00 0.00 0.00 0.00 0.00 0.01 0.01 0.01 0.01 0.01 0.01 0.00 0.00 0.02 0.03 0.07 0.07
0.00 0.00 0.00 0.00 0.00 0.00 0.00 0.00 0.00 0.00 0.01 0.02 0.03 0.04 0.03 0.03 0.03 0.05 0.05 0.06 0.09 0.03 0.01 0.00 0.00 0.00 0.00 0.00 0.00 0.00 0.00 0.01 0.01 0.01 0.01 0.00 0.00 0.00 0.00 0.00 0.00 0.00 0.01
0.00 0.00 0.00 0.00 0.00 0.00 0.00 0.00 0.00 0.00 0.00 0.00 0.00 0.01 0.01 0.02 0.01 0.01 0.02 0.03 0.04 0.05 0.05 0.01 0.01 0.00 0.00 0.00 0.00 0.00 0.00 0.01 0.01 0.01 0.00 0.00 0.00 0.00 0.00 0.00 0.00 0.00 0.00
0.00 0.00 0.00 0.00 0.00 0.00 0.00 0.00 0.00 0.00 0.00 0.00 0.00 0.00 0.01 0.01 0.01 0.01 0.01 0.01 0.01 0.01 0.01 0.01 0.01 0.00 0.00 0.00 0.00 0.00 0.00 0.00 0.00 0.00 0.00 0.00 0.00 0.00 0.00 0.00 0.00 0.00 0.00
0.00 0.00 0.00 0.00 0.00 0.00 0.00 0.00 0.00 0.00 0.00 0.00 0.00 0.00 0.00 0.01 0.01 0.01 0.00 0.00 0.00 0.00 0.00 0.00 0.01 0.01 0.00 0.01 0.00 0.00 0.00 0.00 0.00 0.00 0.00 0.00 0.00 0.00 0.00 0.00 0.00 0.00 0.00
0.00 0.00 0.00 0.00 0.00 0.00 0.00 0.00 0.00 0.00 0.00 0.00 0.00 0.00 0.00 0.00 0.00 0.00 0.00 0.00 0.00 0.00 0.01 0.01 0.01 0.02 0.01 0.01 0.00 0.00 0.00 0.00 0.00 0.00 0.00 0.00 0.00 0.00 0.00 0.00 0.00 0.00 0.00
0.00 0.00 0.00 0.00 0.00 0.00 0.00 0.00 0.00 0.00 0.00 0.00 0.00 0.00 0.00 0.00 0.00 0.01 0.01 0.01 0.01 0.01 0.01 0.01 0.01 0.01 0.00 0.00 0.00 0.00 0.00 0.00 0.00 0.00 0.00 0.00 0.00 0.00 0.00 0.00 0.00 0.00 0.00
0.00 0.00 0.00 0.00 0.00 0.00 0.00 0.00 0.00 0.00 0.00 0.00 0.00 0.00 0.00 0.00 0.01 0.00 0.00 0.00 0.01 0.01 0.00 0.00 0.00 0.00 0.00 0.00 0.00 0.00 0.00 0.00 0.00 0.00 0.00 0.00 0.00 0.00 0.00 0.00 0.00 0.00 0.00
0.00 0.00 0.00 0.00 0.00 0.00 0.00 0.00 0.00 0.00 0.00 0.00 0.00 0.00 0.00 0.00 0.00 0.00 0.00 0.00 0.00 0.00 0.00 0.00 0.00 0.00 0.00 0.00 0.00 0.00 0.00 0.00 0.00 0.00 0.00 0.00 0.00 0.00 0.00 0.00 0.00 0.00 0.00
0.00 0.00 0.00 0.00 0.00 0.00 0.00 0.00 0.00 0.00 0.00 0.00 0.00 0.00 0.00 0.00 0.00 0.00 0.00 0.00 0.00 0.00 0.00 0.00 0.00 0.00 0.00 0.00 0.00 0.00 0.00 0.00 0.00 0.00 0.00 0.00 0.00 0.00 0.00 0.00 0.00 0.00 0.00
0.00 0.00 0.00 0.00 0.00 0.00 0.00 0.01 0.01 0.00 0.00 0.00 0.00 0.00 0.00 0.00 0.00 0.00 0.00 0.00 0.00 0.00 0.00 0.00 0.00 0.00 0.00 0.00 0.00 0.00 0.00 0.00 0.00 0.00 0.00 0.00 0.00 0.00 0.00 0.00 0.00 0.00 0.00
0.00 0.00 0.00 0.00 0.00 0.00 0.00 0.01 0.00 0.00 0.00 0.00 0.00 0.00 0.00 0.00 0.01 0.00 0.00 0.00 0.00 0.00 0.00 0.00 0.00 0.00 0.00 0.00 0.00 0.00 0.00 0.00 0.00 0.00 0.00 0.00 0.00 0.00 0.00 0.00 0.00 0.00 0.00
0.00 0.00 0.00 0.00 0.00 0.00 0.01 0.01 0.00 0.00 0.00 0.00 0.00 0.00 0.02 0.00 0.01 0.00 0.00 0.00 0.00 0.00 0.00 0.00 0.00 0.00 0.00 0.00 0.00 0.00 0.00 0.00 0.00 0.00 0.00 0.00 0.00 0.00 0.00 0.00 0.00 0.00 0.00

GFSMA_prec_precacc12_108.txt.gz
Total_Precipitation_Accumulation
0.00 0.00 0.00 0.00 0.00 0.00 0.00 0.00 0.00 0.00 0.00 0.00 0.00 0.00 0.00 0.00 0.00 0.00 0.00 0.00 0.00 0.00 0.00 0.00 0.00 0.00 0.00 0.00 0.00 0.00 0.00 0.00 0.00 0.00 0.00 0.00 0.00 0.00 0.00 0.00 0.00 0.00 0.00
0.00 0.00 0.00 0.00 0.00 0.00 0.00 0.00 0.00 0.00 0.00 0.00 0.00 0.00 0.00 0.00 0.00 0.00 0.00 0.00 0.00 0.00 0.00 0.00 0.00 0.00 0.00 0.00 0.00 0.00 0.00 0.00 0.00 0.00 0.00 0.00 0.00 0.00 0.00 0.00 0.00 0.00 0.00
0.00 0.00 0.00 0.00 0.00 0.00 0.00 0.00 0.00 0.00 0.00 0.00 0.00 0.00 0.00 0.00 0.00 0.00 0.00 0.00 0.00 0.00 0.00 0.00 0.08 0.09 0.04 0.01 0.02 0.00 0.00 0.00 0.00 0.00 0.00 0.00 0.00 0.00 0.00 0.00 0.00 0.00 0.00
0.00 0.00 0.00 0.00 0.00 0.00 0.00 0.00 0.00 0.00 0.00 0.00 0.00 0.00 0.00 0.00 0.00 0.00 0.00 0.00 0.00 0.00 0.00 0.00 0.03 0.09 0.10 0.08 0.16 0.25 0.11 0.00 0.00 0.00 0.00 0.00 0.00 0.00 0.00 0.00 0.00 0.00 0.00
0.00 0.00 0.00 0.00 0.00 0.00 0.00 0.00 0.00 0.00 0.00 0.00 0.00 0.00 0.00 0.00 0.00 0.00 0.00 0.00 0.00 0.00 0.00 0.00 0.00 0.00 0.02 0.06 0.11 0.24 0.43 0.29 0.04 0.00 0.00 0.00 0.00 0.00 0.00 0.00 0.00 0.00 0.00
0.00 0.00 0.00 0.00 0.00 0.00 0.00 0.00 0.00 0.00 0.00 0.00 0.00 0.00 0.00 0.00 0.00 0.00 0.00 0.00 0.00 0.00 0.00 0.00 0.00 0.00 0.00 0.00 0.03 0.08 0.18 0.43 0.31 0.13 0.07 0.01 0.00 0.00 0.00 0.00 0.00 0.00 0.00
0.00 0.00 0.00 0.00 0.00 0.00 0.00 0.00 0.00 0.00 0.00 0.00 0.00 0.00 0.00 0.00 0.00 0.00 0.00 0.00 0.00 0.00 0.00 0.00 0.00 0.00 0.00 0.00 0.00 0.00 0.02 0.08 0.15 0.27 0.34 0.31 0.15 0.02 0.00 0.00 0.00 0.00 0.00
0.04 0.02 0.03 0.02 0.00 0.00 0.00 0.00 0.00 0.00 0.00 0.00 0.00 0.00 0.00 0.00 0.00 0.00 0.00 0.00 0.00 0.01 0.03 0.04 0.03 0.01 0.00 0.00 0.00 0.00 0.00 0.00 0.00 0.03 0.11 0.24 0.36 0.25 0.08 0.01 0.00 0.00 0.00
0.34 0.21 0.15 0.12 0.07 0.06 0.13 0.15 0.12 0.10 0.10 0.10 0.08 0.07 0.08 0.04 0.03 0.02 0.04 0.04 0.05 0.05 0.05 0.03 0.03 0.01 0.00 0.00 0.00 0.00 0.00 0.00 0.00 0.00 0.00 0.03 0.14 0.24 0.25 0.18 0.07 0.01 0.00
0.30 0.36 0.46 0.50 0.47 0.43 0.34 0.31 0.29 0.35 0.44 0.47 0.46 0.42 0.38 0.26 0.16 0.07 0.02 0.01 0.01 0.01 0.02 0.01 0.02 0.02 0.01 0.00 0.00 0.00 0.00 0.00 0.00 0.00 0.00 0.00 0.02 0.10 0.23 0.29 0.25 0.16 0.03
0.31 0.31 0.43 0.67 0.81 0.82 0.77 0.81 0.80 0.87 0.81 0.70 0.54 0.40 0.36 0.36 0.35 0.36 0.20 0.06 0.03 0.02 0.01 0.03 0.03 0.01 0.00 0.00 0.00 0.00 0.00 0.00 0.00 0.00 0.00 0.00 0.00 0.02 0.11 0.24 0.37 0.42 0.22
0.75 0.75 0.72 0.59 0.61 0.55 0.42 0.45 0.49 0.44 0.37 0.29 0.27 0.32 0.33 0.33 0.28 0.28 0.22 0.09 0.04 0.02 0.01 0.02 0.02 0.02 0.01 0.00 0.00 0.00 0.00 0.00 0.00 0.00 0.01 0.07 0.06 0.06 0.13 0.27 0.48 0.65 0.54
0.29 0.22 0.15 0.19 0.17 0.17 0.14 0.10 0.09 0.09 0.11 0.10 0.12 0.11 0.09 0.10 0.12 0.11 0.10 0.07 0.04 0.02 0.02 0.02 0.01 0.01 0.00 0.00 0.00 0.00 0.00 0.00 0.01 0.04 0.13 0.12 0.04 0.05 0.09 0.09 0.14 0.57 0.74
0.03 0.01 0.02 0.02 0.03 0.04 0.03 0.03 0.03 0.04 0.05 0.05 0.06 0.08 0.09 0.10 0.11 0.10 0.07 0.06 0.03 0.01 0.01 0.00 0.00 0.00 0.00 0.00 0.00 0.00 0.00 0.00 0.01 0.01 0.01 0.01 0.01 0.00 0.01 0.02 0.03 0.10 0.29
0.00 0.00 0.00 0.00 0.00 0.00 0.00 0.00 0.00 0.00 0.00 0.01 0.02 0.03 0.02 0.02 0.03 0.05 0.07 0.10 0.14 0.04 0.02 0.01 0.00 0.00 0.00 0.00 0.00 0.00 0.00 0.00 0.01 0.01 0.01 0.00 0.00 0.00 0.00 0.00 0.01 0.05 0.05
0.00 0.00 0.00 0.00 0.00 0.00 0.00 0.00 0.00 0.00 0.00 0.00 0.00 0.00 0.00 0.00 0.00 0.01 0.03 0.04 0.06 0.08 0.07 0.02 0.01 0.01 0.00 0.00 0.01 0.00 0.00 0.00 0.00 0.01 0.00 0.00 0.00 0.00 0.00 0.00 0.00 0.00 0.00
0.00 0.00 0.00 0.00 0.00 0.00 0.00 0.00 0.00 0.00 0.00 0.00 0.00 0.00 0.00 0.00 0.00 0.01 0.01 0.01 0.02 0.04 0.04 0.03 0.03 0.02 0.02 0.01 0.01 0.00 0.00 0.00 0.00 0.00 0.00 0.00 0.00 0.00 0.00 0.00 0.00 0.00 0.00
0.00 0.00 0.00 0.00 0.00 0.00 0.00 0.00 0.00 0.00 0.00 0.00 0.00 0.00 0.00 0.01 0.01 0.01 0.00 0.01 0.00 0.01 0.01 0.01 0.02 0.02 0.02 0.02 0.01 0.01 0.00 0.00 0.00 0.00 0.00 0.00 0.00 0.00 0.00 0.00 0.00 0.00 0.00
0.00 0.00 0.00 0.00 0.00 0.00 0.00 0.00 0.00 0.00 0.00 0.00 0.00 0.00 0.00 0.00 0.00 0.00 0.00 0.00 0.00 0.00 0.01 0.02 0.02 0.02 0.03 0.03 0.02 0.01 0.00 0.00 0.00 0.00 0.00 0.00 0.00 0.00 0.00 0.00 0.00 0.00 0.00
0.00 0.00 0.00 0.00 0.00 0.00 0.00 0.00 0.00 0.00 0.00 0.00 0.00 0.00 0.00 0.00 0.00 0.01 0.01 0.01 0.01 0.02 0.02 0.02 0.02 0.01 0.01 0.01 0.01 0.00 0.00 0.00 0.00 0.00 0.00 0.00 0.00 0.00 0.00 0.00 0.00 0.00 0.00
0.00 0.00 0.00 0.00 0.00 0.00 0.00 0.00 0.00 0.00 0.00 0.00 0.00 0.00 0.00 0.00 0.01 0.00 0.00 0.00 0.01 0.01 0.01 0.01 0.01 0.00 0.01 0.01 0.01 0.01 0.00 0.00 0.00 0.00 0.00 0.00 0.00 0.00 0.00 0.00 0.00 0.00 0.00
0.00 0.00 0.00 0.00 0.00 0.00 0.00 0.00 0.00 0.00 0.00 0.00 0.00 0.00 0.00 0.00 0.00 0.00 0.00 0.00 0.00 0.00 0.00 0.00 0.00 0.00 0.00 0.00 0.00 0.00 0.00 0.00 0.00 0.00 0.00 0.00 0.00 0.00 0.00 0.00 0.00 0.00 0.00
0.00 0.00 0.00 0.00 0.00 0.00 0.00 0.00 0.00 0.00 0.00 0.00 0.00 0.00 0.00 0.00 0.00 0.00 0.00 0.00 0.00 0.00 0.00 0.00 0.00 0.00 0.00 0.00 0.00 0.00 0.00 0.00 0.00 0.00 0.00 0.00 0.00 0.00 0.00 0.00 0.00 0.00 0.00
0.00 0.00 0.00 0.00 0.00 0.00 0.00 0.00 0.01 0.00 0.00 0.00 0.00 0.00 0.00 0.00 0.01 0.00 0.00 0.00 0.00 0.00 0.00 0.00 0.00 0.00 0.00 0.00 0.00 0.00 0.00 0.00 0.00 0.00 0.00 0.00 0.00 0.00 0.00 0.00 0.00 0.00 0.00
0.00 0.00 0.00 0.00 0.00 0.00 0.00 0.00 0.00 0.00 0.00 0.00 0.00 0.00 0.00 0.00 0.02 0.01 0.00 0.00 0.00 0.00 0.00 0.00 0.00 0.00 0.00 0.00 0.00 0.00 0.00 0.00 0.00 0.00 0.00 0.00 0.00 0.00 0.00 0.00 0.00 0.00 0.00
0.00 0.00 0.00 0.00 0.00 0.00 0.00 0.00 0.00 0.00 0.00 0.00 0.00 0.00 0.02 0.01 0.01 0.01 0.00 0.00 0.00 0.00 0.00 0.00 0.00 0.00 0.00 0.00 0.00 0.00 0.00 0.00 0.00 0.00 0.00 0.00 0.00 0.00 0.00 0.00 0.00 0.00 0.00

GFSMA_prec_precacc12_111.txt.gz
Total_Precipitation_Accumulation
0.00 0.00 0.00 0.00 0.00 0.00 0.00 0.00 0.00 0.00 0.00 0.00 0.00 0.00 0.00 0.00 0.00 0.00 0.00 0.00 0.00 0.00 0.00 0.00 0.00 0.00 0.00 0.00 0.00 0.00 0.00 0.00 0.00 0.00 0.00 0.00 0.00 0.00 0.00 0.00 0.00 0.00 0.00
0.00 0.00 0.00 0.00 0.00 0.00 0.00 0.00 0.00 0.00 0.00 0.00 0.00 0.00 0.00 0.00 0.00 0.00 0.00 0.00 0.00 0.00 0.00 0.01 0.01 0.00 0.00 0.00 0.00 0.00 0.00 0.00 0.00 0.00 0.00 0.00 0.00 0.00 0.00 0.00 0.00 0.00 0.00
0.00 0.00 0.00 0.00 0.00 0.00 0.00 0.00 0.00 0.00 0.00 0.00 0.00 0.00 0.00 0.00 0.00 0.00 0.00 0.00 0.00 0.00 0.00 0.02 0.16 0.14 0.05 0.02 0.03 0.00 0.00 0.00 0.00 0.00 0.00 0.00 0.00 0.00 0.00 0.00 0.00 0.00 0.00
0.00 0.00 0.00 0.00 0.00 0.00 0.00 0.00 0.00 0.00 0.00 0.00 0.00 0.00 0.00 0.00 0.00 0.00 0.00 0.00 0.00 0.00 0.00 0.00 0.04 0.11 0.09 0.08 0.16 0.26 0.11 0.00 0.00 0.00 0.00 0.00 0.00 0.00 0.00 0.00 0.00 0.00 0.00
0.00 0.00 0.00 0.00 0.00 0.00 0.00 0.00 0.00 0.00 0.00 0.00 0.00 0.00 0.00 0.00 0.00 0.00 0.00 0.00 0.00 0.00 0.00 0.00 0.00 0.00 0.02 0.06 0.12 0.24 0.37 0.29 0.06 0.01 0.00 0.00 0.00 0.00 0.00 0.00 0.00 0.00 0.00
0.00 0.00 0.00 0.00 0.00 0.00 0.00 0.00 0.00 0.00 0.00 0.00 0.00 0.00 0.00 0.00 0.00 0.00 0.00 0.00 0.00 0.00 0.00 0.00 0.00 0.00 0.00 0.00 0.02 0.08 0.15 0.29 0.26 0.17 0.09 0.02 0.00 0.00 0.00 0.00 0.00 0.00 0.00
0.00 0.00 0.00 0.00 0.00 0.00 0.00 0.00 0.00 0.00 0.00 0.00 0.00 0.00 0.00 0.00 0.00 0.00 0.00 0.00 0.00 0.00 0.00 0.00 0.00 0.01 0.00 0.00 0.00 0.00 0.01 0.05 0.11 0.21 0.34 0.36 0.25 0.05 0.00 0.00 0.00 0.00 0.00
0.03 0.02 0.03 0.02 0.00 0.00 0.00 0.00 0.00 0.00 0.00 0.00 0.00 0.00 0.00 0.00 0.00 0.00 0.00 0.00 0.00 0.01 0.03 0.07 0.09 0.06 0.02 0.00 0.00 0.00 0.00 0.00 0.00 0.01 0.06 0.18 0.35 0.32 0.13 0.04 0.00 0.00 0.00
0.13 0.12 0.12 0.14 0.06 0.06 0.13 0.13 0.12 0.10 0.09 0.10 0.09 0.08 0.12 0.12 0.09 0.04 0.05 0.04 0.07 0.07 0.06 0.04 0.04 0.04 0.03 0.02 0.01 0.00 0.00 0.00 0.00 0.00 0.00 0.00 0.06 0.19 0.26 0.23 0.15 0.05 0.00
0.13 0.19 0.33 0.39 0.39 0.48 0.39 0.29 0.25 0.30 0.39 0.38 0.41 0.41 0.41 0.31 0.24 0.11 0.03 0.03 0.05 0.04 0.03 0.02 0.02 0.02 0.02 0.02 0.01 0.00 0.00 0.00 0.00 0.00 0.00 0.00 0.00 0.02 0.12 0.26 0.30 0.30 0.11
0.36 0.37 0.45 0.69 0.86 1.00 0.95 0.95 0.91 0.91 0.76 0.59 0.41 0.30 0.29 0.33 0.40 0.53 0.38 0.20 0.13 0.06 0.03 0.03 0.04 0.03 0.04 0.07 0.05 0.01 0.00 0.00 0.00 0.00 0.00 0.00 0.00 0.00 0.02 0.14 0.26 0.39 0.35
0.90 0.92 0.94 0.80 0.72 0.69 0.59 0.57 0.59 0.48 0.38 0.26 0.19 0.22 0.27 0.31 0.28 0.32 0.27 0.11 0.04 0.02 0.02 0.02 0.03 0.03 0.02 0.01 0.01 0.01 0.00 0.00 0.00 0.00 0.00 0.04 0.05 0.07 0.08 0.09 0.22 0.51 0.52
0.53 0.40 0.27 0.32 0.27 0.16 0.13 0.12 0.09 0.08 0.08 0.07 0.09 0.09 0.08 0.09 0.11 0.11 0.11 0.08 0.04 0.02 0.02 0.02 0.02 0.01 0.00 0.00 0.01 0.02 0.01 0.00 0.00 0.03 0.10 0.11 0.04 0.02 0.05 0.06 0.11 0.55 0.76
0.19 0.13 0.04 0.04 0.02 0.01 0.01 0.01 0.01 0.01 0.02 0.02 0.02 0.03 0.05 0.07 0.09 0.09 0.07 0.07 0.03 0.01 0.00 0.00 0.00 0.00 0.00 0.00 0.01 0.02 0.02 0.02 0.01 0.01 0.00 0.01 0.01 0.00 0.01 0.02 0.03 0.10 0.35
0.04 0.00 0.00 0.00 0.00 0.00 0.00 0.00 0.00 0.00 0.00 0.00 0.01 0.02 0.01 0.01 0.02 0.05 0.07 0.11 0.16 0.06 0.02 0.01 0.00 0.00 0.01 0.02 0.04 0.02 0.02 0.03 0.01 0.01 0.00 0.00 0.00 0.00 0.00 0.00 0.01 0.07 0.08
0.00 0.00 0.00 0.00 0.00 0.00 0.00 0.00 0.00 0.00 0.00 0.00 0.00 0.00 0.00 0.00 0.00 0.01 0.02 0.03 0.05 0.08 0.08 0.02 0.01 0.01 0.01 0.01 0.02 0.01 0.02 0.04 0.02 0.01 0.00 0.00 0.00 0.00 0.00 0.00 0.00 0.02 0.04
0.00 0.00 0.00 0.00 0.00 0.00 0.00 0.00 0.00 0.00 0.00 0.00 0.00 0.00 0.00 0.00 0.00 0.00 0.01 0.01 0.02 0.04 0.05 0.03 0.04 0.03 0.02 0.02 0.02 0.01 0.01 0.00 0.01 0.01 0.00 0.00 0.00 0.00 0.00 0.00 0.00 0.00 0.00
0.00 0.00 0.00 0.00 0.00 0.00 0.00 0.00 0.00 0.00 0.00 0.00 0.00 0.00 0.00 0.00 0.00 0.00 0.00 0.01 0.00 0.01 0.01 0.01 0.02 0.03 0.02 0.02 0.02 0.01 0.01 0.00 0.00 0.00 0.00 0.00 0.00 0.00 0.00 0.00 0.00 0.00 0.00
0.00 0.00 0.00 0.00 0.00 0.00 0.00 0.00 0.00 0.00 0.00 0.00 0.00 0.00 0.00 0.00 0.00 0.00 0.00 0.00 0.00 0.01 0.02 0.02 0.03 0.03 0.04 0.05 0.03 0.02 0.01 0.00 0.00 0.01 0.00 0.00 0.00 0.00 0.00 0.00 0.00 0.00 0.00
0.00 0.00 0.00 0.00 0.00 0.00 0.00 0.00 0.00 0.00 0.00 0.00 0.00 0.00 0.00 0.00 0.00 0.01 0.01 0.01 0.01 0.02 0.02 0.02 0.03 0.02 0.02 0.02 0.01 0.01 0.00 0.00 0.00 0.00 0.00 0.00 0.00 0.00 0.00 0.00 0.00 0.00 0.00
0.00 0.00 0.00 0.00 0.00 0.00 0.00 0.00 0.00 0.00 0.00 0.00 0.00 0.00 0.00 0.00 0.00 0.00 0.00 0.00 0.01 0.01 0.02 0.02 0.03 0.02 0.03 0.03 0.02 0.01 0.01 0.01 0.00 0.00 0.00 0.00 0.00 0.00 0.00 0.00 0.00 0.00 0.00
0.00 0.00 0.00 0.00 0.00 0.00 0.00 0.00 0.00 0.00 0.00 0.00 0.00 0.00 0.00 0.00 0.00 0.00 0.00 0.00 0.00 0.00 0.00 0.00 0.00 0.01 0.01 0.00 0.00 0.00 0.00 0.00 0.00 0.00 0.00 0.00 0.00 0.00 0.00 0.00 0.00 0.00 0.00
0.00 0.00 0.00 0.00 0.00 0.00 0.00 0.00 0.00 0.00 0.00 0.00 0.00 0.00 0.00 0.00 0.00 0.00 0.00 0.00 0.00 0.01 0.00 0.00 0.00 0.00 0.00 0.00 0.00 0.00 0.00 0.00 0.00 0.00 0.00 0.00 0.00 0.00 0.00 0.00 0.00 0.00 0.00
0.00 0.00 0.00 0.00 0.00 0.00 0.00 0.00 0.00 0.00 0.00 0.00 0.00 0.00 0.00 0.00 0.01 0.00 0.00 0.00 0.00 0.00 0.00 0.00 0.00 0.00 0.00 0.00 0.00 0.00 0.00 0.00 0.00 0.00 0.00 0.00 0.00 0.00 0.00 0.00 0.00 0.00 0.00
0.00 0.00 0.00 0.00 0.00 0.00 0.00 0.00 0.00 0.00 0.00 0.00 0.00 0.00 0.00 0.00 0.02 0.01 0.00 0.00 0.00 0.00 0.00 0.00 0.00 0.00 0.00 0.00 0.00 0.00 0.00 0.00 0.00 0.00 0.00 0.00 0.00 0.00 0.00 0.00 0.00 0.00 0.00
0.00 0.00 0.00 0.00 0.00 0.00 0.00 0.00 0.00 0.00 0.00 0.00 0.00 0.00 0.02 0.01 0.01 0.01 0.00 0.00 0.00 0.00 0.00 0.00 0.00 0.00 0.00 0.00 0.00 0.00 0.00 0.00 0.00 0.00 0.00 0.00 0.00 0.00 0.00 0.00 0.00 0.00 0.00

GFSMA_prec_precacc12_114.txt.gz
Total_Precipitation_Accumulation
0.00 0.00 0.00 0.00 0.00 0.00 0.00 0.00 0.00 0.00 0.00 0.00 0.00 0.00 0.00 0.00 0.00 0.00 0.00 0.00 0.00 0.00 0.00 0.00 0.00 0.00 0.00 0.00 0.00 0.00 0.00 0.00 0.00 0.00 0.00 0.00 0.00 0.00 0.00 0.00 0.00 0.00 0.00
0.00 0.00 0.00 0.00 0.00 0.00 0.00 0.00 0.00 0.00 0.00 0.00 0.00 0.00 0.00 0.00 0.00 0.00 0.00 0.00 0.00 0.00 0.00 0.01 0.02 0.00 0.00 0.00 0.00 0.00 0.00 0.00 0.00 0.00 0.00 0.00 0.00 0.00 0.00 0.00 0.00 0.00 0.00
0.00 0.00 0.00 0.00 0.00 0.00 0.00 0.00 0.00 0.00 0.00 0.00 0.00 0.00 0.00 0.00 0.00 0.00 0.00 0.00 0.00 0.00 0.00 0.02 0.18 0.14 0.04 0.02 0.03 0.00 0.00 0.00 0.00 0.00 0.00 0.00 0.00 0.00 0.00 0.00 0.00 0.00 0.00
0.00 0.00 0.00 0.00 0.00 0.00 0.00 0.00 0.00 0.00 0.00 0.00 0.00 0.00 0.00 0.00 0.00 0.00 0.00 0.00 0.00 0.00 0.00 0.00 0.04 0.10 0.08 0.06 0.13 0.23 0.09 0.00 0.00 0.00 0.00 0.00 0.00 0.00 0.00 0.00 0.00 0.00 0.00
0.00 0.00 0.00 0.00 0.00 0.00 0.00 0.00 0.00 0.00 0.00 0.00 0.00 0.00 0.00 0.00 0.00 0.00 0.00 0.00 0.00 0.00 0.00 0.00 0.00 0.00 0.02 0.05 0.10 0.19 0.27 0.22 0.05 0.01 0.00 0.00 0.00 0.00 0.00 0.00 0.00 0.00 0.00
0.00 0.00 0.00 0.00 0.00 0.00 0.00 0.00 0.00 0.00 0.00 0.00 0.00 0.00 0.00 0.00 0.00 0.00 0.00 0.00 0.00 0.00 0.00 0.00 0.00 0.00 0.00 0.00 0.01 0.08 0.11 0.16 0.19 0.17 0.10 0.02 0.01 0.00 0.00 0.00 0.00 0.00 0.00
0.00 0.00 0.00 0.00 0.00 0.00 0.00 0.00 0.00 0.00 0.00 0.00 0.00 0.00 0.00 0.00 0.00 0.00 0.00 0.00 0.00 0.00 0.00 0.00 0.01 0.02 0.01 0.00 0.00 0.01 0.01 0.01 0.04 0.16 0.29 0.34 0.25 0.09 0.01 0.00 0.00 0.00 0.00
0.01 0.01 0.02 0.02 0.00 0.00 0.00 0.00 0.00 0.00 0.00 0.00 0.00 0.00 0.00 0.00 0.00 0.00 0.01 0.00 0.00 0.01 0.03 0.07 0.10 0.09 0.05 0.01 0.01 0.00 0.00 0.00 0.00 0.00 0.02 0.11 0.28 0.31 0.17 0.07 0.01 0.00 0.00
0.06 0.05 0.05 0.11 0.05 0.05 0.06 0.02 0.02 0.02 0.03 0.04 0.05 0.08 0.12 0.12 0.09 0.04 0.03 0.04 0.07 0.07 0.06 0.04 0.05 0.04 0.03 0.03 0.01 0.00 0.00 0.00 0.00 0.00 0.00 0.00 0.02 0.10 0.19 0.25 0.21 0.10 0.03
0.06 0.06 0.12 0.21 0.25 0.35 0.31 0.22 0.18 0.22 0.25 0.26 0.33 0.35 0.35 0.27 0.21 0.10 0.03 0.03 0.05 0.06 0.05 0.03 0.02 0.03 0.02 0.02 0.04 0.07 0.03 0.00 0.00 0.00 0.00 0.00 0.00 0.01 0.04 0.15 0.29 0.36 0.22
0.25 0.29 0.39 0.56 0.74 0.87 0.82 0.85 0.86 0.85 0.69 0.52 0.34 0.24 0.19 0.22 0.28 0.42 0.36 0.23 0.18 0.09 0.04 0.04 0.04 0.03 0.05 0.07 0.07 0.06 0.03 0.01 0.00 0.00 0.00 0.00 0.00 0.00 0.00 0.03 0.13 0.32 0.39
0.87 0.93 0.93 0.79 0.71 0.69 0.61 0.56 0.58 0.47 0.35 0.23 0.17 0.18 0.19 0.19 0.20 0.25 0.22 0.08 0.04 0.02 0.02 0.02 0.03 0.03 0.02 0.01 0.02 0.02 0.04 0.06 0.03 0.00 0.00 0.02 0.04 0.07 0.06 0.04 0.06 0.22 0.34
0.55 0.47 0.37 0.46 0.46 0.34 0.15 0.09 0.09 0.10 0.07 0.06 0.08 0.08 0.07 0.06 0.07 0.06 0.07 0.05 0.03 0.02 0.02 0.02 0.02 0.02 0.01 0.00 0.01 0.02 0.04 0.07 0.05 0.03 0.09 0.08 0.03 0.02 0.02 0.03 0.04 0.38 0.69
0.30 0.33 0.22 0.28 0.19 0.15 0.05 0.00 0.01 0.02 0.02 0.01 0.01 0.01 0.02 0.03 0.05 0.06 0.06 0.05 0.03 0.01 0.00 0.00 0.00 0.00 0.00 0.00 0.01 0.03 0.05 0.08 0.05 0.03 0.01 0.00 0.00 0.00 0.01 0.01 0.03 0.09 0.36
0.38 0.29 0.33 0.15 0.11 0.04 0.01 0.00 0.00 0.00 0.00 0.00 0.00 0.00 0.00 0.00 0.01 0.04 0.06 0.10 0.15 0.05 0.01 0.00 0.00 0.00 0.01 0.02 0.05 0.04 0.06 0.09 0.05 0.02 0.01 0.00 0.00 0.00 0.00 0.00 0.01 0.08 0.09
0.26 0.17 0.11 0.10 0.04 0.00 0.00 0.00 0.00 0.00 0.00 0.00 0.00 0.00 0.00 0.00 0.00 0.00 0.01 0.02 0.04 0.06 0.05 0.00 0.01 0.01 0.01 0.01 0.02 0.01 0.02 0.05 0.05 0.04 0.04 0.02 0.00 0.00 0.00 0.00 0.00 0.03 0.09
0.10 0.05 0.03 0.01 0.00 0.00 0.00 0.00 0.00 0.00 0.00 0.00 0.00 0.00 0.00 0.00 0.00 0.00 0.00 0.00 0.01 0.04 0.05 0.03 0.04 0.04 0.02 0.02 0.02 0.02 0.02 0.01 0.02 0.03 0.01 0.00 0.00 0.00 0.00 0.00 0.00 0.00 0.02
0.02 0.00 0.00 0.00 0.00 0.00 0.00 0.00 0.00 0.00 0.00 0.00 0.00 0.00 0.00 0.00 0.00 0.00 0.00 0.00 0.00 0.01 0.01 0.01 0.02 0.03 0.02 0.02 0.02 0.01 0.01 0.00 0.00 0.01 0.01 0.00 0.00 0.00 0.00 0.00 0.00 0.00 0.00
0.00 0.00 0.00 0.00 0.00 0.00 0.00 0.00 0.00 0.00 0.00 0.00 0.00 0.00 0.00 0.00 0.00 0.00 0.00 0.00 0.00 0.01 0.01 0.02 0.02 0.03 0.04 0.05 0.04 0.02 0.01 0.02 0.02 0.03 0.01 0.00 0.00 0.00 0.00 0.00 0.00 0.00 0.00
0.00 0.00 0.00 0.00 0.00 0.00 0.00 0.00 0.00 0.00 0.00 0.00 0.00 0.00 0.00 0.00 0.00 0.00 0.00 0.01 0.01 0.02 0.02 0.02 0.03 0.02 0.02 0.02 0.02 0.01 0.01 0.00 0.01 0.01 0.02 0.01 0.00 0.00 0.00 0.00 0.00 0.00 0.00
0.00 0.00 0.00 0.00 0.00 0.00 0.00 0.00 0.00 0.00 0.00 0.00 0.00 0.00 0.00 0.00 0.00 0.00 0.00 0.00 0.01 0.01 0.02 0.02 0.03 0.03 0.03 0.03 0.03 0.03 0.03 0.02 0.01 0.01 0.00 0.00 0.00 0.00 0.00 0.00 0.00 0.00 0.00
0.00 0.00 0.00 0.00 0.00 0.00 0.00 0.00 0.00 0.00 0.00 0.00 0.00 0.00 0.00 0.00 0.00 0.00 0.00 0.00 0.00 0.00 0.00 0.00 0.00 0.01 0.01 0.00 0.01 0.01 0.01 0.01 0.01 0.00 0.00 0.00 0.00 0.00 0.00 0.00 0.00 0.00 0.00
0.00 0.00 0.00 0.00 0.00 0.00 0.00 0.00 0.00 0.00 0.00 0.00 0.00 0.00 0.00 0.00 0.00 0.00 0.00 0.00 0.00 0.01 0.01 0.00 0.00 0.00 0.00 0.00 0.00 0.00 0.00 0.00 0.00 0.00 0.00 0.00 0.00 0.00 0.00 0.00 0.00 0.00 0.00
0.00 0.00 0.00 0.00 0.00 0.00 0.00 0.00 0.00 0.00 0.00 0.00 0.00 0.00 0.00 0.00 0.01 0.00 0.00 0.00 0.00 0.00 0.00 0.00 0.00 0.00 0.00 0.00 0.00 0.00 0.00 0.00 0.00 0.00 0.00 0.00 0.00 0.00 0.00 0.00 0.00 0.00 0.00
0.00 0.00 0.00 0.00 0.00 0.00 0.00 0.00 0.00 0.00 0.00 0.00 0.00 0.00 0.00 0.00 0.02 0.01 0.00 0.00 0.00 0.00 0.00 0.01 0.00 0.00 0.00 0.00 0.00 0.00 0.00 0.00 0.00 0.00 0.00 0.00 0.00 0.00 0.00 0.00 0.00 0.00 0.00
0.00 0.00 0.00 0.00 0.00 0.00 0.00 0.00 0.00 0.00 0.00 0.00 0.00 0.00 0.02 0.01 0.01 0.01 0.00 0.00 0.00 0.00 0.00 0.00 0.00 0.00 0.00 0.00 0.00 0.00 0.00 0.00 0.00 0.00 0.00 0.00 0.00 0.00 0.00 0.00 0.00 0.00 0.00

GFSMA_prec_precacc12_117.txt.gz
Total_Precipitation_Accumulation
0.00 0.00 0.00 0.00 0.00 0.00 0.00 0.00 0.00 0.00 0.00 0.00 0.00 0.00 0.00 0.00 0.00 0.00 0.00 0.00 0.00 0.00 0.00 0.00 0.00 0.00 0.00 0.00 0.00 0.00 0.00 0.00 0.00 0.00 0.00 0.00 0.00 0.00 0.00 0.00 0.00 0.00 0.00
0.00 0.00 0.00 0.00 0.00 0.00 0.00 0.00 0.00 0.00 0.00 0.00 0.00 0.00 0.00 0.00 0.00 0.00 0.00 0.00 0.00 0.00 0.00 0.01 0.02 0.00 0.00 0.00 0.00 0.00 0.00 0.00 0.00 0.00 0.00 0.00 0.00 0.00 0.00 0.00 0.00 0.00 0.00
0.00 0.00 0.00 0.00 0.00 0.00 0.00 0.00 0.00 0.00 0.00 0.00 0.00 0.00 0.00 0.00 0.00 0.00 0.00 0.00 0.00 0.00 0.00 0.02 0.17 0.11 0.04 0.02 0.02 0.00 0.00 0.00 0.00 0.00 0.00 0.00 0.00 0.00 0.00 0.00 0.00 0.00 0.00
0.00 0.00 0.00 0.00 0.00 0.00 0.00 0.00 0.00 0.00 0.00 0.00 0.00 0.00 0.00 0.00 0.00 0.00 0.00 0.00 0.00 0.00 0.00 0.00 0.03 0.08 0.08 0.04 0.08 0.15 0.06 0.00 0.00 0.00 0.00 0.00 0.00 0.00 0.00 0.00 0.00 0.00 0.00
0.00 0.00 0.00 0.00 0.00 0.00 0.00 0.00 0.00 0.00 0.00 0.00 0.00 0.00 0.00 0.00 0.00 0.00 0.00 0.00 0.00 0.00 0.00 0.00 0.00 0.00 0.02 0.04 0.07 0.11 0.15 0.16 0.07 0.01 0.00 0.00 0.00 0.00 0.00 0.00 0.00 0.00 0.00
0.00 0.00 0.00 0.00 0.00 0.00 0.00 0.00 0.00 0.00 0.00 0.00 0.00 0.00 0.00 0.00 0.00 0.00 0.00 0.00 0.00 0.00 0.00 0.00 0.00 0.00 0.00 0.00 0.02 0.07 0.05 0.05 0.14 0.17 0.12 0.03 0.01 0.00 0.00 0.00 0.00 0.00 0.00
0.00 0.00 0.00 0.00 0.00 0.00 0.00 0.00 0.00 0.00 0.00 0.00 0.00 0.00 0.00 0.00 0.00 0.00 0.00 0.00 0.00 0.00 0.00 0.01 0.02 0.03 0.01 0.00 0.00 0.01 0.00 0.00 0.01 0.06 0.19 0.29 0.25 0.13 0.04 0.00 0.00 0.00 0.00
0.01 0.00 0.00 0.00 0.00 0.00 0.00 0.00 0.00 0.00 0.00 0.00 0.00 0.00 0.00 0.00 0.00 0.00 0.01 0.00 0.00 0.01 0.03 0.07 0.11 0.10 0.06 0.03 0.02 0.01 0.00 0.00 0.00 0.00 0.01 0.06 0.16 0.25 0.22 0.12 0.04 0.00 0.00
0.05 0.03 0.03 0.06 0.04 0.05 0.06 0.02 0.01 0.01 0.01 0.02 0.02 0.05 0.11 0.12 0.09 0.03 0.02 0.02 0.04 0.04 0.04 0.04 0.04 0.04 0.04 0.03 0.02 0.01 0.02 0.03 0.04 0.00 0.00 0.00 0.01 0.03 0.12 0.25 0.28 0.17 0.09
0.06 0.05 0.11 0.09 0.12 0.29 0.27 0.17 0.14 0.16 0.19 0.16 0.19 0.20 0.22 0.20 0.17 0.08 0.02 0.02 0.05 0.06 0.05 0.03 0.02 0.03 0.03 0.02 0.04 0.08 0.12 0.10 0.03 0.00 0.00 0.00 0.00 0.00 0.01 0.07 0.21 0.37 0.29
0.15 0.23 0.28 0.39 0.53 0.70 0.62 0.52 0.42 0.48 0.52 0.42 0.27 0.19 0.17 0.18 0.23 0.36 0.30 0.20 0.17 0.09 0.04 0.03 0.04 0.03 0.05 0.07 0.07 0.06 0.05 0.02 0.01 0.02 0.02 0.00 0.00 0.00 0.01 0.01 0.03 0.19 0.37
0.62 0.72 0.74 0.62 0.59 0.51 0.41 0.38 0.40 0.24 0.17 0.10 0.08 0.13 0.17 0.17 0.16 0.19 0.15 0.04 0.03 0.02 0.01 0.02 0.03 0.03 0.02 0.01 0.02 0.02 0.04 0.07 0.06 0.05 0.05 0.03 0.03 0.05 0.06 0.03 0.02 0.04 0.20
0.49 0.47 0.39 0.48 0.51 0.41 0.23 0.19 0.16 0.08 0.03 0.03 0.05 0.07 0.08 0.05 0.05 0.03 0.03 0.03 0.01 0.01 0.01 0.02 0.02 0.02 0.01 0.00 0.01 0.02 0.04 0.07 0.06 0.07 0.12 0.14 0.03 0.02 0.01 0.00 0.00 0.09 0.39
0.31 0.33 0.23 0.34 0.37 0.30 0.24 0.10 0.03 0.02 0.03 0.03 0.01 0.01 0.02 0.02 0.03 0.03 0.03 0.04 0.02 0.00 0.00 0.00 0.00 0.00 0.00 0.00 0.01 0.03 0.05 0.08 0.07 0.09 0.13 0.12 0.02 0.01 0.01 0.01 0.01 0.03 0.29
0.49 0.31 0.37 0.26 0.25 0.26 0.18 0.09 0.04 0.01 0.01 0.01 0.00 0.00 0.00 0.00 0.01 0.01 0.03 0.06 0.10 0.04 0.01 0.00 0.00 0.00 0.01 0.02 0.05 0.04 0.06 0.09 0.07 0.03 0.01 0.01 0.02 0.02 0.01 0.00 0.01 0.08 0.08
0.52 0.44 0.30 0.26 0.21 0.26 0.33 0.08 0.01 0.00 0.00 0.00 0.00 0.00 0.00 0.00 0.00 0.00 0.00 0.01 0.02 0.04 0.04 0.00 0.00 0.01 0.01 0.00 0.02 0.01 0.02 0.05 0.06 0.06 0.05 0.05 0.04 0.03 0.02 0.00 0.00 0.03 0.10
0.29 0.30 0.28 0.21 0.13 0.10 0.09 0.02 0.00 0.00 0.00 0.00 0.00 0.00 0.00 0.00 0.00 0.00 0.00 0.00 0.01 0.03 0.05 0.02 0.03 0.03 0.02 0.02 0.02 0.02 0.02 0.01 0.02 0.04 0.02 0.01 0.00 0.00 0.00 0.00 0.00 0.00 0.03
0.14 0.11 0.11 0.12 0.09 0.04 0.01 0.00 0.00 0.00 0.00 0.00 0.00 0.00 0.00 0.00 0.00 0.00 0.00 0.00 0.00 0.00 0.01 0.01 0.01 0.02 0.02 0.01 0.02 0.01 0.01 0.00 0.00 0.02 0.01 0.01 0.00 0.00 0.00 0.00 0.00 0.00 0.00
0.08 0.06 0.04 0.04 0.02 0.00 0.00 0.00 0.00 0.00 0.00 0.00 0.00 0.00 0.00 0.00 0.00 0.00 0.00 0.00 0.00 0.01 0.01 0.01 0.01 0.01 0.03 0.04 0.04 0.02 0.01 0.02 0.02 0.06 0.02 0.01 0.01 0.00 0.00 0.00 0.01 0.01 0.00
0.07 0.04 0.01 0.00 0.00 0.00 0.00 0.00 0.00 0.00 0.00 0.00 0.00 0.00 0.00 0.00 0.00 0.00 0.00 0.00 0.00 0.01 0.01 0.01 0.02 0.01 0.01 0.02 0.02 0.01 0.01 0.00 0.01 0.01 0.04 0.03 0.01 0.00 0.00 0.00 0.01 0.00 0.00
0.02 0.01 0.00 0.00 0.00 0.00 0.00 0.00 0.00 0.00 0.00 0.00 0.00 0.00 0.00 0.00 0.00 0.00 0.00 0.00 0.00 0.00 0.01 0.02 0.03 0.03 0.03 0.03 0.03 0.03 0.03 0.03 0.02 0.02 0.02 0.01 0.00 0.00 0.00 0.00 0.00 0.00 0.00
0.00 0.00 0.00 0.00 0.00 0.00 0.00 0.00 0.00 0.00 0.00 0.00 0.00 0.00 0.00 0.00 0.00 0.00 0.00 0.00 0.00 0.00 0.00 0.00 0.00 0.01 0.01 0.01 0.01 0.02 0.02 0.02 0.01 0.00 0.00 0.00 0.00 0.00 0.00 0.00 0.00 0.00 0.00
0.00 0.00 0.00 0.00 0.00 0.00 0.00 0.00 0.00 0.00 0.00 0.00 0.00 0.00 0.00 0.00 0.00 0.00 0.00 0.00 0.00 0.01 0.01 0.00 0.00 0.00 0.00 0.00 0.00 0.00 0.00 0.01 0.01 0.00 0.00 0.00 0.00 0.00 0.00 0.00 0.00 0.00 0.00
0.00 0.00 0.00 0.00 0.00 0.00 0.00 0.00 0.00 0.00 0.00 0.00 0.00 0.00 0.00 0.00 0.00 0.00 0.00 0.00 0.00 0.00 0.00 0.00 0.00 0.00 0.00 0.00 0.00 0.00 0.00 0.00 0.00 0.00 0.00 0.00 0.00 0.00 0.00 0.00 0.00 0.00 0.00
0.00 0.00 0.00 0.00 0.00 0.00 0.00 0.00 0.00 0.00 0.00 0.00 0.00 0.00 0.00 0.00 0.01 0.00 0.00 0.00 0.00 0.00 0.00 0.01 0.00 0.00 0.01 0.01 0.00 0.00 0.00 0.00 0.00 0.00 0.00 0.00 0.00 0.00 0.00 0.00 0.00 0.00 0.00
0.00 0.00 0.00 0.00 0.00 0.00 0.00 0.00 0.00 0.00 0.00 0.00 0.00 0.00 0.00 0.00 0.00 0.00 0.00 0.00 0.00 0.00 0.00 0.00 0.00 0.00 0.00 0.00 0.01 0.00 0.00 0.00 0.00 0.00 0.00 0.00 0.00 0.00 0.00 0.00 0.00 0.00 0.00

GFSMA_prec_precacc12_123.txt.gz
Total_Precipitation_Accumulation
0.01 0.01 0.00 0.00 0.00 0.00 0.00 0.00 0.00 0.00 0.00 0.00 0.00 0.00 0.00 0.00 0.00 0.00 0.00 0.00 0.00 0.00 0.00 0.00 0.00 0.00 0.00 0.00 0.00 0.00 0.00 0.00 0.00 0.00 0.00 0.00 0.00 0.00 0.00 0.00 0.00 0.00 0.00
0.00 0.00 0.00 0.00 0.00 0.00 0.00 0.00 0.00 0.00 0.00 0.00 0.00 0.00 0.00 0.00 0.00 0.00 0.00 0.00 0.00 0.00 0.00 0.00 0.00 0.00 0.00 0.00 0.00 0.00 0.00 0.00 0.00 0.00 0.00 0.00 0.00 0.00 0.00 0.00 0.00 0.00 0.00
0.00 0.00 0.00 0.00 0.00 0.00 0.00 0.00 0.00 0.00 0.00 0.00 0.00 0.00 0.00 0.00 0.00 0.00 0.00 0.00 0.00 0.00 0.00 0.01 0.04 0.02 0.00 0.00 0.00 0.00 0.00 0.00 0.00 0.00 0.00 0.00 0.00 0.00 0.00 0.00 0.00 0.00 0.00
0.00 0.00 0.00 0.00 0.00 0.00 0.00 0.00 0.00 0.00 0.00 0.00 0.00 0.00 0.00 0.00 0.00 0.00 0.00 0.00 0.00 0.00 0.00 0.00 0.02 0.07 0.07 0.06 0.09 0.11 0.09 0.08 0.02 0.00 0.00 0.00 0.00 0.00 0.00 0.00 0.00 0.00 0.00
0.00 0.00 0.00 0.00 0.00 0.00 0.00 0.00 0.00 0.00 0.00 0.00 0.00 0.00 0.00 0.00 0.00 0.00 0.00 0.00 0.00 0.00 0.00 0.00 0.00 0.01 0.04 0.10 0.17 0.16 0.25 0.19 0.12 0.09 0.05 0.02 0.00 0.00 0.00 0.00 0.00 0.00 0.00
0.00 0.00 0.00 0.00 0.00 0.00 0.00 0.00 0.00 0.00 0.00 0.00 0.00 0.00 0.00 0.00 0.00 0.00 0.00 0.00 0.00 0.00 0.00 0.00 0.00 0.00 0.00 0.00 0.05 0.11 0.10 0.05 0.04 0.10 0.10 0.10 0.08 0.05 0.02 0.00 0.00 0.00 0.00
0.00 0.00 0.00 0.00 0.00 0.00 0.00 0.00 0.00 0.00 0.00 0.00 0.00 0.00 0.00 0.00 0.00 0.00 0.00 0.00 0.00 0.00 0.00 0.00 0.03 0.05 0.03 0.04 0.01 0.03 0.04 0.02 0.00 0.00 0.03 0.10 0.11 0.17 0.14 0.10 0.06 0.01 0.00
0.00 0.00 0.00 0.00 0.00 0.00 0.00 0.00 0.00 0.00 0.00 0.00 0.00 0.00 0.00 0.00 0.00 0.00 0.00 0.00 0.00 0.00 0.00 0.00 0.02 0.05 0.05 0.04 0.03 0.02 0.01 0.00 0.01 0.03 0.03 0.03 0.06 0.08 0.17 0.17 0.18 0.13 0.08
0.00 0.00 0.00 0.00 0.00 0.00 0.00 0.00 0.01 0.01 0.01 0.00 0.00 0.00 0.01 0.02 0.02 0.00 0.00 0.00 0.00 0.00 0.00 0.00 0.00 0.01 0.01 0.01 0.01 0.01 0.02 0.03 0.07 0.06 0.02 0.02 0.02 0.02 0.04 0.11 0.20 0.23 0.27
0.01 0.00 0.01 0.01 0.01 0.02 0.03 0.02 0.03 0.06 0.08 0.08 0.02 0.00 0.01 0.02 0.04 0.02 0.00 0.00 0.00 0.02 0.02 0.01 0.00 0.00 0.01 0.00 0.03 0.08 0.12 0.10 0.03 0.00 0.00 0.01 0.00 0.03 0.01 0.04 0.08 0.17 0.30
0.03 0.05 0.04 0.03 0.08 0.08 0.08 0.07 0.09 0.04 0.04 0.01 0.00 0.01 0.00 0.00 0.01 0.02 0.03 0.04 0.05 0.03 0.01 0.00 0.00 0.00 0.00 0.00 0.02 0.05 0.05 0.02 0.01 0.02 0.03 0.02 0.03 0.02 0.02 0.03 0.01 0.02 0.11
0.08 0.10 0.11 0.11 0.15 0.13 0.11 0.12 0.14 0.07 0.01 0.00 0.01 0.03 0.03 0.02 0.01 0.01 0.01 0.00 0.00 0.00 0.00 0.00 0.00 0.00 0.00 0.00 0.00 0.01 0.04 0.07 0.06 0.05 0.06 0.04 0.05 0.02 0.02 0.01 0.01 0.01 0.01
0.05 0.12 0.16 0.21 0.34 0.36 0.19 0.15 0.13 0.08 0.03 0.02 0.02 0.04 0.05 0.04 0.02 0.00 0.01 0.01 0.00 0.00 0.00 0.00 0.00 0.00 0.00 0.00 0.00 0.00 0.03 0.07 0.06 0.06 0.09 0.14 0.06 0.02 0.00 0.00 0.00 0.00 0.02
0.12 0.21 0.19 0.31 0.38 0.31 0.25 0.11 0.04 0.04 0.04 0.03 0.02 0.02 0.02 0.01 0.00 0.01 0.01 0.01 0.01 0.00 0.00 0.00 0.00 0.00 0.00 0.00 0.00 0.01 0.03 0.07 0.07 0.10 0.15 0.17 0.04 0.01 0.00 0.00 0.00 0.00 0.01
0.48 0.32 0.38 0.29 0.28 0.26 0.19 0.13 0.08 0.05 0.02 0.01 0.01 0.00 0.00 0.00 0.00 0.00 0.00 0.01 0.02 0.00 0.00 0.00 0.00 0.00 0.00 0.00 0.01 0.02 0.04 0.07 0.07 0.05 0.05 0.05 0.05 0.04 0.04 0.05 0.03 0.01 0.01
0.59 0.47 0.32 0.29 0.23 0.27 0.35 0.18 0.09 0.06 0.02 0.00 0.00 0.00 0.00 0.00 0.00 0.00 0.00 0.00 0.00 0.00 0.00 0.00 0.00 0.00 0.00 0.00 0.00 0.00 0.00 0.02 0.05 0.07 0.07 0.07 0.05 0.04 0.03 0.02 0.01 0.01 0.06
0.39 0.40 0.36 0.29 0.19 0.14 0.16 0.25 0.11 0.04 0.02 0.01 0.00 0.00 0.00 0.00 0.00 0.00 0.00 0.00 0.00 0.00 0.01 0.00 0.00 0.00 0.00 0.00 0.00 0.00 0.01 0.01 0.02 0.05 0.04 0.02 0.01 0.00 0.00 0.00 0.00 0.00 0.02
0.32 0.27 0.25 0.29 0.22 0.15 0.11 0.11 0.10 0.04 0.02 0.01 0.01 0.01 0.00 0.00 0.00 0.00 0.00 0.00 0.00 0.00 0.00 0.00 0.00 0.00 0.00 0.00 0.00 0.00 0.00 0.00 0.01 0.04 0.02 0.01 0.01 0.01 0.01 0.00 0.00 0.00 0.01
0.38 0.29 0.23 0.21 0.15 0.12 0.08 0.06 0.07 0.07 0.05 0.04 0.04 0.02 0.00 0.00 0.00 0.00 0.00 0.00 0.00 0.00 0.00 0.00 0.00 0.00 0.00 0.00 0.01 0.00 0.00 0.01 0.02 0.07 0.03 0.02 0.02 0.01 0.01 0.00 0.01 0.01 0.01
0.26 0.31 0.32 0.25 0.17 0.12 0.10 0.07 0.05 0.06 0.06 0.03 0.02 0.02 0.00 0.00 0.00 0.00 0.00 0.00 0.00 0.00 0.00 0.00 0.00 0.00 0.00 0.00 0.00 0.00 0.00 0.00 0.01 0.02 0.06 0.05 0.04 0.01 0.01 0.01 0.01 0.00 0.00
0.10 0.15 0.16 0.17 0.23 0.22 0.13 0.09 0.07 0.05 0.05 0.06 0.01 0.00 0.00 0.00 0.00 0.00 0.00 0.00 0.00 0.00 0.00 0.00 0.00 0.00 0.00 0.00 0.01 0.02 0.02 0.02 0.02 0.02 0.03 0.03 0.02 0.02 0.01 0.01 0.00 0.00 0.00
0.07 0.07 0.04 0.03 0.03 0.03 0.04 0.04 0.04 0.02 0.02 0.01 0.00 0.00 0.00 0.00 0.00 0.00 0.00 0.00 0.00 0.00 0.00 0.00 0.00 0.00 0.00 0.00 0.01 0.02 0.03 0.02 0.02 0.01 0.01 0.01 0.01 0.01 0.01 0.00 0.01 0.00 0.00
0.16 0.13 0.14 0.11 0.11 0.06 0.03 0.04 0.03 0.02 0.00 0.00 0.00 0.00 0.00 0.00 0.00 0.00 0.00 0.00 0.00 0.00 0.00 0.00 0.00 0.00 0.00 0.00 0.00 0.00 0.01 0.02 0.02 0.01 0.01 0.01 0.00 0.00 0.00 0.00 0.00 0.00 0.00
0.03 0.06 0.10 0.19 0.20 0.08 0.01 0.00 0.00 0.00 0.00 0.00 0.00 0.00 0.00 0.00 0.00 0.00 0.00 0.00 0.00 0.00 0.00 0.00 0.00 0.00 0.00 0.00 0.00 0.00 0.00 0.00 0.00 0.00 0.00 0.01 0.00 0.00 0.00 0.00 0.00 0.00 0.00
0.01 0.01 0.02 0.04 0.06 0.01 0.02 0.01 0.00 0.00 0.00 0.00 0.00 0.00 0.00 0.00 0.00 0.00 0.00 0.00 0.00 0.00 0.00 0.00 0.00 0.00 0.00 0.00 0.00 0.00 0.00 0.00 0.00 0.00 0.00 0.00 0.00 0.00 0.00 0.00 0.00 0.00 0.00
0.01 0.01 0.01 0.01 0.04 0.04 0.02 0.04 0.01 0.00 0.00 0.00 0.00 0.00 0.00 0.00 0.00 0.00 0.00 0.00 0.00 0.00 0.00 0.00 0.00 0.00 0.00 0.00 0.01 0.00 0.00 0.00 0.00 0.00 0.00 0.00 0.00 0.00 0.00 0.00 0.00 0.00 0.00

GFSMA_prec_precacc12_129.txt.gz
Total_Precipitation_Accumulation
0.01 0.01 0.00 0.00 0.00 0.00 0.00 0.00 0.00 0.00 0.00 0.00 0.00 0.00 0.00 0.00 0.00 0.00 0.00 0.00 0.00 0.00 0.00 0.00 0.00 0.00 0.00 0.00 0.00 0.00 0.00 0.00 0.00 0.00 0.00 0.00 0.00 0.00 0.00 0.00 0.00 0.00 0.00
0.00 0.00 0.00 0.00 0.00 0.00 0.00 0.00 0.00 0.00 0.00 0.00 0.00 0.00 0.00 0.00 0.00 0.00 0.00 0.00 0.00 0.00 0.00 0.00 0.00 0.00 0.00 0.00 0.00 0.00 0.00 0.00 0.00 0.00 0.00 0.00 0.00 0.00 0.00 0.00 0.00 0.00 0.00
0.00 0.00 0.00 0.00 0.00 0.00 0.00 0.00 0.00 0.00 0.00 0.00 0.00 0.00 0.00 0.00 0.00 0.00 0.00 0.00 0.00 0.00 0.00 0.00 0.00 0.00 0.00 0.00 0.00 0.00 0.00 0.00 0.00 0.00 0.00 0.00 0.00 0.00 0.00 0.00 0.00 0.00 0.00
0.00 0.00 0.00 0.00 0.00 0.00 0.00 0.00 0.00 0.00 0.00 0.00 0.00 0.00 0.00 0.00 0.00 0.00 0.00 0.00 0.00 0.00 0.00 0.00 0.03 0.10 0.14 0.19 0.24 0.37 0.34 0.20 0.09 0.03 0.00 0.00 0.00 0.00 0.00 0.00 0.00 0.00 0.00
0.00 0.00 0.00 0.00 0.00 0.00 0.00 0.00 0.00 0.00 0.00 0.00 0.00 0.00 0.00 0.00 0.00 0.00 0.00 0.00 0.00 0.00 0.00 0.00 0.00 0.03 0.09 0.16 0.20 0.29 0.46 0.30 0.24 0.24 0.18 0.10 0.05 0.02 0.02 0.00 0.00 0.00 0.00
0.01 0.00 0.00 0.00 0.00 0.00 0.00 0.00 0.00 0.00 0.00 0.00 0.00 0.00 0.00 0.00 0.00 0.00 0.00 0.00 0.00 0.00 0.00 0.00 0.00 0.00 0.00 0.00 0.04 0.10 0.20 0.18 0.06 0.06 0.08 0.12 0.12 0.11 0.09 0.04 0.02 0.01 0.00
0.05 0.02 0.01 0.00 0.00 0.00 0.00 0.00 0.00 0.00 0.00 0.00 0.00 0.00 0.00 0.00 0.00 0.00 0.00 0.00 0.00 0.00 0.00 0.00 0.01 0.03 0.02 0.04 0.02 0.02 0.08 0.06 0.01 0.03 0.03 0.05 0.07 0.10 0.13 0.13 0.16 0.11 0.05
0.07 0.05 0.02 0.00 0.00 0.00 0.00 0.00 0.00 0.00 0.00 0.00 0.00 0.00 0.00 0.00 0.00 0.00 0.00 0.00 0.00 0.00 0.00 0.00 0.00 0.02 0.01 0.01 0.01 0.01 0.01 0.00 0.01 0.03 0.04 0.05 0.08 0.03 0.06 0.09 0.15 0.16 0.14
0.09 0.07 0.03 0.01 0.00 0.00 0.00 0.00 0.00 0.00 0.00 0.00 0.00 0.00 0.00 0.01 0.01 0.00 0.00 0.00 0.00 0.00 0.00 0.00 0.00 0.00 0.00 0.00 0.00 0.00 0.00 0.00 0.03 0.05 0.02 0.03 0.04 0.06 0.05 0.04 0.10 0.15 0.21
0.27 0.16 0.06 0.01 0.00 0.00 0.00 0.00 0.00 0.01 0.02 0.05 0.01 0.00 0.00 0.01 0.00 0.00 0.00 0.00 0.00 0.00 0.00 0.00 0.00 0.00 0.00 0.00 0.00 0.00 0.00 0.00 0.00 0.00 0.01 0.02 0.02 0.11 0.08 0.07 0.09 0.07 0.12
0.16 0.21 0.19 0.07 0.01 0.00 0.00 0.00 0.00 0.00 0.01 0.00 0.00 0.00 0.00 0.00 0.00 0.00 0.00 0.00 0.00 0.00 0.00 0.00 0.00 0.00 0.00 0.00 0.00 0.00 0.00 0.00 0.00 0.00 0.01 0.03 0.05 0.06 0.04 0.04 0.01 0.00 0.02
0.10 0.11 0.17 0.13 0.02 0.00 0.00 0.00 0.01 0.02 0.01 0.00 0.00 0.01 0.01 0.01 0.01 0.00 0.00 0.00 0.00 0.00 0.00 0.00 0.00 0.00 0.00 0.00 0.00 0.00 0.00 0.00 0.00 0.00 0.01 0.03 0.05 0.04 0.02 0.00 0.00 0.00 0.00
0.13 0.11 0.11 0.10 0.04 0.00 0.00 0.01 0.01 0.03 0.01 0.00 0.00 0.01 0.02 0.03 0.01 0.00 0.00 0.00 0.00 0.00 0.00 0.00 0.00 0.00 0.00 0.00 0.00 0.00 0.00 0.00 0.00 0.01 0.01 0.03 0.05 0.03 0.01 0.00 0.00 0.00 0.00
0.06 0.08 0.10 0.06 0.03 0.01 0.02 0.01 0.01 0.02 0.00 0.01 0.01 0.01 0.03 0.03 0.01 0.00 0.00 0.00 0.00 0.00 0.00 0.00 0.00 0.00 0.00 0.00 0.00 0.00 0.00 0.00 0.01 0.02 0.03 0.07 0.03 0.02 0.01 0.00 0.00 0.00 0.00
0.08 0.09 0.13 0.11 0.03 0.00 0.02 0.04 0.04 0.04 0.01 0.02 0.02 0.04 0.04 0.02 0.00 0.00 0.00 0.00 0.00 0.00 0.00 0.00 0.00 0.00 0.00 0.00 0.00 0.00 0.00 0.01 0.01 0.03 0.04 0.04 0.04 0.03 0.03 0.05 0.03 0.01 0.00
0.19 0.14 0.12 0.11 0.05 0.02 0.03 0.12 0.10 0.08 0.03 0.02 0.04 0.06 0.04 0.00 0.00 0.00 0.00 0.00 0.00 0.00 0.00 0.00 0.00 0.00 0.00 0.00 0.00 0.00 0.00 0.01 0.01 0.02 0.03 0.03 0.02 0.02 0.02 0.02 0.01 0.00 0.00
0.28 0.26 0.21 0.16 0.11 0.06 0.08 0.26 0.14 0.07 0.06 0.05 0.04 0.04 0.03 0.00 0.00 0.00 0.00 0.00 0.00 0.00 0.00 0.00 0.00 0.00 0.00 0.00 0.00 0.00 0.00 0.00 0.01 0.02 0.02 0.02 0.01 0.01 0.00 0.00 0.00 0.00 0.00
0.32 0.29 0.23 0.27 0.25 0.20 0.18 0.17 0.15 0.10 0.07 0.04 0.03 0.04 0.02 0.00 0.00 0.00 0.00 0.00 0.00 0.00 0.00 0.00 0.00 0.00 0.00 0.00 0.00 0.00 0.00 0.00 0.00 0.02 0.01 0.01 0.01 0.01 0.01 0.00 0.00 0.00 0.00
0.52 0.39 0.36 0.27 0.23 0.25 0.24 0.22 0.22 0.22 0.18 0.13 0.09 0.06 0.03 0.01 0.01 0.00 0.00 0.00 0.00 0.00 0.00 0.00 0.00 0.00 0.00 0.00 0.00 0.00 0.00 0.00 0.00 0.02 0.01 0.01 0.01 0.01 0.01 0.00 0.00 0.00 0.01
0.66 0.61 0.56 0.47 0.37 0.29 0.26 0.23 0.19 0.18 0.18 0.13 0.09 0.08 0.07 0.04 0.02 0.01 0.00 0.00 0.00 0.00 0.00 0.00 0.00 0.00 0.00 0.00 0.00 0.00 0.00 0.00 0.00 0.01 0.02 0.02 0.03 0.02 0.01 0.00 0.00 0.00 0.00
0.64 0.62 0.70 0.75 0.62 0.53 0.36 0.27 0.24 0.18 0.16 0.17 0.14 0.08 0.04 0.03 0.04 0.02 0.01 0.00 0.00 0.00 0.00 0.00 0.00 0.00 0.00 0.00 0.00 0.00 0.00 0.00 0.00 0.00 0.01 0.02 0.02 0.02 0.02 0.02 0.01 0.00 0.00
0.48 0.55 0.51 0.58 0.67 0.53 0.60 0.62 0.46 0.29 0.22 0.22 0.25 0.19 0.11 0.08 0.07 0.09 0.10 0.07 0.03 0.01 0.00 0.00 0.00 0.00 0.00 0.00 0.00 0.00 0.01 0.00 0.01 0.00 0.00 0.01 0.01 0.01 0.01 0.01 0.04 0.01 0.00
0.34 0.33 0.43 0.46 0.62 0.73 0.71 0.73 0.89 0.82 0.63 0.46 0.37 0.35 0.39 0.40 0.34 0.24 0.17 0.09 0.04 0.01 0.00 0.00 0.00 0.00 0.00 0.00 0.00 0.00 0.00 0.01 0.01 0.01 0.00 0.01 0.00 0.00 0.00 0.01 0.03 0.01 0.00
0.13 0.23 0.29 0.35 0.44 0.53 0.49 0.49 0.62 0.70 0.81 0.81 0.72 0.66 0.55 0.45 0.37 0.27 0.15 0.04 0.01 0.00 0.00 0.00 0.00 0.00 0.00 0.00 0.00 0.00 0.00 0.00 0.00 0.00 0.00 0.00 0.00 0.00 0.00 0.00 0.02 0.01 0.00
0.02 0.02 0.05 0.11 0.14 0.10 0.15 0.19 0.25 0.24 0.30 0.35 0.37 0.40 0.40 0.35 0.29 0.16 0.07 0.03 0.01 0.00 0.00 0.00 0.00 0.00 0.00 0.00 0.00 0.00 0.00 0.00 0.00 0.00 0.00 0.00 0.00 0.00 0.00 0.00 0.00 0.01 0.00
0.01 0.01 0.01 0.03 0.11 0.23 0.28 0.28 0.28 0.25 0.21 0.18 0.18 0.16 0.15 0.12 0.10 0.05 0.03 0.02 0.02 0.01 0.00 0.00 0.00 0.00 0.00 0.00 0.00 0.00 0.00 0.00 0.00 0.00 0.00 0.00 0.00 0.00 0.00 0.00 0.00 0.00 0.00

GFSMA_prec_precacc12_132.txt.gz
Total_Precipitation_Accumulation
0.00 0.00 0.00 0.00 0.00 0.00 0.00 0.00 0.00 0.00 0.00 0.00 0.00 0.00 0.00 0.00 0.00 0.00 0.00 0.00 0.00 0.00 0.00 0.00 0.00 0.00 0.00 0.00 0.00 0.00 0.00 0.00 0.00 0.00 0.00 0.00 0.00 0.00 0.00 0.00 0.00 0.00 0.00
0.00 0.00 0.00 0.00 0.00 0.00 0.00 0.00 0.00 0.00 0.00 0.00 0.00 0.00 0.00 0.00 0.00 0.00 0.00 0.00 0.00 0.00 0.00 0.00 0.00 0.00 0.00 0.00 0.00 0.00 0.00 0.00 0.00 0.00 0.00 0.00 0.00 0.00 0.00 0.00 0.00 0.00 0.00
0.00 0.00 0.00 0.00 0.00 0.00 0.00 0.00 0.00 0.00 0.00 0.00 0.00 0.00 0.00 0.00 0.00 0.00 0.00 0.00 0.00 0.00 0.00 0.00 0.00 0.00 0.00 0.02 0.03 0.02 0.01 0.00 0.00 0.00 0.00 0.00 0.00 0.00 0.00 0.00 0.00 0.00 0.00
0.00 0.00 0.00 0.00 0.00 0.00 0.00 0.00 0.00 0.00 0.00 0.00 0.00 0.00 0.00 0.00 0.00 0.00 0.00 0.00 0.00 0.00 0.00 0.00 0.02 0.07 0.17 0.24 0.33 0.50 0.46 0.29 0.15 0.08 0.04 0.01 0.00 0.00 0.00 0.00 0.00 0.00 0.00
0.01 0.00 0.00 0.00 0.00 0.00 0.00 0.00 0.00 0.00 0.00 0.00 0.00 0.00 0.00 0.00 0.00 0.00 0.00 0.00 0.00 0.00 0.00 0.00 0.00 0.02 0.07 0.11 0.11 0.23 0.38 0.21 0.21 0.24 0.20 0.13 0.08 0.04 0.03 0.01 0.00 0.00 0.00
0.05 0.01 0.00 0.00 0.00 0.00 0.00 0.00 0.00 0.00 0.00 0.00 0.00 0.00 0.00 0.00 0.00 0.00 0.00 0.00 0.00 0.00 0.00 0.00 0.00 0.00 0.00 0.00 0.01 0.05 0.18 0.17 0.05 0.02 0.02 0.06 0.09 0.09 0.09 0.05 0.03 0.03 0.00
0.12 0.08 0.05 0.01 0.00 0.00 0.00 0.00 0.00 0.00 0.00 0.00 0.00 0.00 0.00 0.00 0.00 0.00 0.00 0.00 0.00 0.00 0.00 0.00 0.00 0.00 0.00 0.00 0.01 0.01 0.06 0.06 0.01 0.03 0.03 0.03 0.02 0.02 0.05 0.10 0.16 0.12 0.05
0.13 0.12 0.10 0.07 0.02 0.00 0.00 0.00 0.00 0.00 0.00 0.00 0.00 0.00 0.00 0.00 0.00 0.00 0.00 0.00 0.00 0.00 0.00 0.00 0.00 0.00 0.00 0.00 0.00 0.00 0.00 0.00 0.00 0.02 0.03 0.04 0.06 0.01 0.00 0.01 0.07 0.12 0.13
0.12 0.14 0.11 0.09 0.05 0.01 0.00 0.00 0.00 0.00 0.00 0.00 0.00 0.00 0.00 0.00 0.00 0.00 0.00 0.00 0.00 0.00 0.00 0.00 0.00 0.00 0.00 0.00 0.00 0.00 0.00 0.00 0.00 0.01 0.01 0.02 0.04 0.06 0.06 0.02 0.05 0.08 0.13
0.30 0.20 0.14 0.09 0.08 0.04 0.00 0.00 0.00 0.00 0.00 0.00 0.00 0.00 0.00 0.00 0.00 0.00 0.00 0.00 0.00 0.00 0.00 0.00 0.00 0.00 0.00 0.00 0.00 0.00 0.00 0.00 0.00 0.00 0.01 0.01 0.02 0.12 0.08 0.08 0.09 0.05 0.05
0.16 0.23 0.30 0.23 0.10 0.06 0.02 0.00 0.00 0.00 0.00 0.00 0.00 0.00 0.00 0.00 0.00 0.00 0.00 0.00 0.00 0.00 0.00 0.00 0.00 0.00 0.00 0.00 0.00 0.00 0.00 0.00 0.00 0.00 0.01 0.02 0.05 0.07 0.05 0.05 0.01 0.00 0.00
0.10 0.12 0.19 0.27 0.25 0.19 0.07 0.01 0.00 0.00 0.00 0.00 0.00 0.00 0.00 0.00 0.00 0.00 0.00 0.00 0.00 0.00 0.00 0.00 0.00 0.00 0.00 0.00 0.00 0.00 0.00 0.00 0.00 0.00 0.01 0.03 0.05 0.04 0.04 0.02 0.00 0.00 0.00
0.13 0.11 0.11 0.14 0.11 0.09 0.08 0.02 0.00 0.00 0.00 0.00 0.00 0.00 0.00 0.01 0.00 0.00 0.00 0.00 0.00 0.00 0.00 0.00 0.00 0.00 0.00 0.00 0.00 0.00 0.00 0.00 0.00 0.01 0.01 0.03 0.04 0.03 0.02 0.01 0.00 0.00 0.00
0.05 0.08 0.10 0.07 0.03 0.01 0.01 0.01 0.01 0.00 0.00 0.01 0.00 0.00 0.03 0.03 0.02 0.01 0.00 0.00 0.00 0.00 0.00 0.00 0.00 0.00 0.00 0.00 0.00 0.00 0.00 0.00 0.01 0.02 0.02 0.04 0.02 0.02 0.01 0.01 0.00 0.00 0.00
0.05 0.07 0.15 0.20 0.08 0.02 0.02 0.02 0.01 0.02 0.02 0.03 0.03 0.04 0.05 0.03 0.01 0.01 0.00 0.00 0.00 0.00 0.00 0.00 0.00 0.00 0.00 0.00 0.00 0.00 0.00 0.00 0.00 0.01 0.01 0.02 0.03 0.02 0.02 0.02 0.02 0.00 0.00
0.18 0.12 0.13 0.21 0.28 0.13 0.05 0.05 0.03 0.03 0.04 0.04 0.06 0.07 0.07 0.05 0.04 0.04 0.03 0.00 0.00 0.00 0.00 0.00 0.00 0.00 0.00 0.00 0.00 0.00 0.00 0.00 0.00 0.01 0.01 0.03 0.02 0.02 0.01 0.00 0.00 0.00 0.00
0.30 0.25 0.22 0.18 0.21 0.25 0.17 0.11 0.05 0.05 0.07 0.08 0.06 0.04 0.04 0.06 0.05 0.04 0.01 0.00 0.00 0.00 0.00 0.00 0.00 0.00 0.00 0.00 0.00 0.00 0.00 0.00 0.00 0.01 0.01 0.01 0.01 0.01 0.00 0.00 0.00 0.00 0.00
0.31 0.36 0.32 0.33 0.32 0.31 0.26 0.16 0.10 0.10 0.10 0.08 0.05 0.05 0.06 0.06 0.04 0.03 0.01 0.00 0.00 0.00 0.00 0.00 0.00 0.00 0.00 0.00 0.00 0.00 0.00 0.00 0.00 0.01 0.01 0.01 0.01 0.00 0.00 0.00 0.00 0.00 0.00
0.53 0.47 0.52 0.46 0.37 0.39 0.40 0.36 0.27 0.29 0.27 0.23 0.16 0.12 0.12 0.10 0.07 0.05 0.06 0.06 0.04 0.01 0.00 0.00 0.00 0.00 0.00 0.00 0.00 0.00 0.00 0.00 0.00 0.00 0.00 0.00 0.01 0.00 0.01 0.00 0.00 0.00 0.00
0.92 0.68 0.66 0.62 0.56 0.43 0.39 0.38 0.32 0.29 0.25 0.18 0.14 0.13 0.14 0.12 0.10 0.10 0.08 0.06 0.03 0.01 0.00 0.00 0.00 0.00 0.00 0.00 0.00 0.00 0.00 0.00 0.00 0.00 0.00 0.01 0.01 0.01 0.01 0.01 0.00 0.00 0.00
0.78 0.66 0.74 0.84 0.77 0.69 0.53 0.42 0.34 0.26 0.22 0.22 0.17 0.11 0.09 0.08 0.08 0.06 0.05 0.03 0.01 0.01 0.01 0.01 0.00 0.00 0.00 0.00 0.00 0.00 0.00 0.00 0.00 0.00 0.00 0.00 0.00 0.00 0.02 0.02 0.01 0.00 0.00
0.63 0.66 0.56 0.62 0.72 0.61 0.68 0.70 0.55 0.37 0.28 0.26 0.28 0.22 0.14 0.12 0.13 0.15 0.16 0.14 0.09 0.06 0.04 0.03 0.02 0.01 0.00 0.00 0.00 0.00 0.00 0.00 0.00 0.00 0.00 0.00 0.00 0.01 0.01 0.01 0.05 0.01 0.00
0.41 0.44 0.67 0.53 0.66 0.77 0.74 0.77 0.92 0.85 0.65 0.48 0.39 0.38 0.41 0.44 0.44 0.40 0.37 0.34 0.32 0.29 0.18 0.10 0.06 0.01 0.00 0.00 0.00 0.00 0.00 0.00 0.00 0.00 0.00 0.00 0.00 0.00 0.00 0.01 0.03 0.01 0.00
0.22 0.26 0.37 0.48 0.56 0.66 0.65 0.62 0.76 0.86 0.98 0.98 0.93 0.86 0.75 0.64 0.63 0.65 0.60 0.56 0.50 0.44 0.30 0.18 0.10 0.04 0.02 0.00 0.00 0.00 0.00 0.00 0.00 0.00 0.00 0.00 0.00 0.00 0.00 0.00 0.01 0.01 0.00
0.03 0.05 0.08 0.16 0.22 0.21 0.30 0.31 0.35 0.36 0.45 0.52 0.58 0.62 0.69 0.75 0.79 0.72 0.61 0.54 0.41 0.26 0.18 0.14 0.09 0.05 0.03 0.02 0.01 0.00 0.00 0.00 0.00 0.00 0.00 0.00 0.00 0.00 0.00 0.00 0.00 0.01 0.00
0.01 0.01 0.01 0.03 0.12 0.24 0.30 0.30 0.31 0.30 0.33 0.36 0.37 0.33 0.35 0.32 0.35 0.35 0.31 0.27 0.20 0.16 0.16 0.13 0.09 0.06 0.04 0.04 0.03 0.01 0.00 0.00 0.00 0.00 0.00 0.00 0.00 0.00 0.00 0.00 0.00 0.00 0.00

GFSMA_prec_precacc12_135.txt.gz
Total_Precipitation_Accumulation
0.00 0.00 0.00 0.00 0.00 0.00 0.00 0.00 0.00 0.00 0.00 0.00 0.00 0.00 0.00 0.00 0.00 0.00 0.00 0.00 0.00 0.00 0.00 0.00 0.00 0.00 0.00 0.00 0.00 0.00 0.00 0.00 0.00 0.00 0.00 0.00 0.00 0.00 0.00 0.00 0.00 0.00 0.00
0.00 0.00 0.00 0.00 0.00 0.00 0.00 0.00 0.00 0.00 0.00 0.00 0.00 0.00 0.00 0.00 0.00 0.00 0.00 0.00 0.00 0.00 0.00 0.00 0.00 0.00 0.00 0.00 0.00 0.00 0.00 0.00 0.00 0.00 0.00 0.00 0.00 0.00 0.00 0.00 0.00 0.00 0.00
0.00 0.00 0.00 0.00 0.00 0.00 0.00 0.00 0.00 0.00 0.00 0.00 0.00 0.00 0.00 0.00 0.00 0.00 0.00 0.00 0.00 0.00 0.00 0.00 0.00 0.00 0.02 0.05 0.10 0.09 0.04 0.01 0.00 0.00 0.00 0.00 0.00 0.00 0.00 0.00 0.00 0.00 0.00
0.00 0.00 0.00 0.00 0.00 0.00 0.00 0.00 0.00 0.00 0.00 0.00 0.00 0.00 0.00 0.00 0.00 0.00 0.00 0.00 0.00 0.00 0.00 0.00 0.02 0.06 0.17 0.22 0.32 0.47 0.43 0.28 0.17 0.10 0.05 0.01 0.00 0.00 0.00 0.00 0.00 0.00 0.00
0.02 0.00 0.00 0.00 0.00 0.00 0.00 0.00 0.00 0.00 0.00 0.00 0.00 0.00 0.00 0.00 0.00 0.00 0.00 0.00 0.00 0.00 0.00 0.00 0.00 0.02 0.06 0.08 0.06 0.17 0.27 0.14 0.17 0.20 0.16 0.11 0.07 0.04 0.03 0.01 0.00 0.00 0.00
0.06 0.01 0.00 0.01 0.00 0.00 0.00 0.00 0.00 0.00 0.00 0.00 0.00 0.00 0.00 0.00 0.00 0.00 0.00 0.00 0.00 0.00 0.00 0.00 0.00 0.00 0.00 0.00 0.01 0.05 0.14 0.16 0.05 0.01 0.01 0.03 0.04 0.06 0.07 0.04 0.03 0.03 0.00
0.13 0.09 0.07 0.04 0.01 0.00 0.00 0.00 0.00 0.00 0.00 0.00 0.00 0.00 0.00 0.00 0.00 0.00 0.00 0.00 0.00 0.00 0.00 0.00 0.00 0.00 0.00 0.00 0.01 0.01 0.04 0.05 0.00 0.03 0.03 0.03 0.02 0.01 0.02 0.03 0.11 0.11 0.05
0.15 0.14 0.12 0.10 0.04 0.01 0.00 0.00 0.00 0.00 0.00 0.00 0.00 0.00 0.00 0.00 0.00 0.00 0.00 0.00 0.00 0.00 0.00 0.00 0.00 0.00 0.00 0.00 0.00 0.00 0.00 0.00 0.00 0.00 0.01 0.03 0.05 0.01 0.00 0.00 0.02 0.03 0.07
0.21 0.18 0.13 0.11 0.09 0.04 0.01 0.00 0.00 0.00 0.00 0.00 0.00 0.00 0.00 0.00 0.00 0.00 0.00 0.00 0.00 0.00 0.00 0.00 0.00 0.00 0.00 0.00 0.00 0.00 0.00 0.00 0.00 0.00 0.01 0.02 0.03 0.05 0.06 0.02 0.04 0.04 0.03
0.31 0.23 0.19 0.12 0.09 0.07 0.03 0.01 0.00 0.00 0.00 0.00 0.00 0.00 0.00 0.00 0.00 0.00 0.00 0.00 0.00 0.00 0.00 0.00 0.00 0.00 0.00 0.00 0.00 0.00 0.00 0.00 0.00 0.00 0.01 0.01 0.02 0.09 0.08 0.06 0.07 0.02 0.00
0.17 0.23 0.30 0.25 0.13 0.08 0.06 0.03 0.01 0.00 0.00 0.00 0.00 0.00 0.00 0.00 0.00 0.00 0.00 0.00 0.00 0.00 0.00 0.00 0.00 0.00 0.00 0.00 0.00 0.00 0.00 0.00 0.00 0.00 0.01 0.02 0.03 0.05 0.04 0.04 0.02 0.00 0.00
0.10 0.13 0.20 0.27 0.27 0.21 0.11 0.07 0.05 0.01 0.00 0.00 0.00 0.00 0.00 0.00 0.00 0.00 0.00 0.00 0.00 0.00 0.00 0.00 0.00 0.00 0.00 0.00 0.00 0.00 0.00 0.00 0.00 0.00 0.01 0.02 0.02 0.03 0.03 0.04 0.01 0.00 0.00
0.13 0.13 0.12 0.14 0.12 0.10 0.12 0.12 0.07 0.03 0.01 0.00 0.00 0.00 0.00 0.01 0.00 0.00 0.00 0.00 0.00 0.00 0.00 0.00 0.00 0.00 0.00 0.00 0.00 0.00 0.00 0.00 0.00 0.01 0.01 0.02 0.02 0.03 0.03 0.02 0.01 0.00 0.00
0.05 0.08 0.11 0.07 0.03 0.02 0.01 0.02 0.04 0.03 0.01 0.01 0.00 0.00 0.03 0.03 0.02 0.01 0.00 0.00 0.00 0.00 0.00 0.00 0.00 0.00 0.00 0.00 0.00 0.00 0.00 0.00 0.01 0.01 0.02 0.02 0.02 0.02 0.01 0.01 0.01 0.00 0.00
0.05 0.08 0.16 0.21 0.09 0.02 0.02 0.02 0.01 0.02 0.02 0.04 0.03 0.05 0.05 0.03 0.01 0.01 0.00 0.00 0.00 0.00 0.00 0.00 0.00 0.00 0.00 0.00 0.00 0.00 0.00 0.00 0.00 0.01 0.01 0.01 0.01 0.01 0.01 0.00 0.00 0.00 0.00
0.16 0.11 0.13 0.22 0.30 0.15 0.05 0.04 0.03 0.04 0.04 0.04 0.06 0.09 0.09 0.06 0.04 0.05 0.06 0.03 0.03 0.03 0.01 0.00 0.00 0.00 0.00 0.00 0.00 0.00 0.00 0.00 0.00 0.00 0.01 0.02 0.01 0.01 0.01 0.00 0.00 0.00 0.00
0.26 0.22 0.22 0.18 0.22 0.27 0.19 0.14 0.06 0.06 0.07 0.07 0.06 0.06 0.05 0.09 0.07 0.07 0.06 0.06 0.06 0.06 0.04 0.02 0.00 0.00 0.00 0.00 0.00 0.00 0.00 0.00 0.00 0.00 0.01 0.01 0.00 0.01 0.00 0.00 0.00 0.00 0.00
0.26 0.31 0.29 0.32 0.32 0.32 0.29 0.25 0.18 0.12 0.10 0.08 0.08 0.07 0.08 0.08 0.06 0.06 0.06 0.07 0.08 0.08 0.04 0.02 0.01 0.00 0.00 0.00 0.00 0.00 0.00 0.00 0.00 0.00 0.00 0.00 0.00 0.00 0.00 0.00 0.00 0.00 0.00
0.35 0.33 0.41 0.39 0.34 0.42 0.43 0.40 0.33 0.32 0.30 0.24 0.18 0.16 0.18 0.18 0.13 0.14 0.17 0.18 0.18 0.14 0.07 0.04 0.02 0.01 0.01 0.00 0.00 0.00 0.00 0.00 0.00 0.00 0.00 0.00 0.00 0.00 0.00 0.00 0.00 0.00 0.00
0.87 0.49 0.44 0.56 0.70 0.62 0.56 0.57 0.50 0.40 0.34 0.30 0.25 0.25 0.28 0.25 0.20 0.20 0.21 0.16 0.14 0.11 0.09 0.06 0.04 0.02 0.01 0.00 0.00 0.00 0.00 0.00 0.00 0.00 0.00 0.00 0.00 0.01 0.01 0.01 0.01 0.00 0.00
1.05 0.88 0.76 0.81 0.73 0.86 0.93 0.91 0.79 0.67 0.55 0.41 0.36 0.24 0.18 0.16 0.16 0.15 0.13 0.08 0.06 0.06 0.07 0.07 0.06 0.06 0.05 0.02 0.01 0.01 0.01 0.00 0.00 0.00 0.00 0.00 0.00 0.00 0.01 0.01 0.01 0.00 0.00
0.91 1.13 0.90 0.78 0.79 0.71 0.85 1.00 0.89 0.67 0.53 0.51 0.43 0.28 0.19 0.20 0.21 0.24 0.25 0.21 0.15 0.13 0.11 0.08 0.06 0.04 0.03 0.02 0.03 0.04 0.02 0.01 0.00 0.00 0.00 0.00 0.00 0.00 0.00 0.01 0.05 0.02 0.00
0.53 0.56 0.77 0.61 0.66 0.80 0.87 0.92 1.12 1.07 0.87 0.69 0.57 0.52 0.52 0.50 0.50 0.46 0.44 0.43 0.42 0.43 0.37 0.28 0.23 0.16 0.11 0.09 0.10 0.07 0.02 0.01 0.00 0.00 0.00 0.00 0.00 0.00 0.00 0.01 0.03 0.01 0.00
0.33 0.28 0.36 0.46 0.45 0.70 0.77 0.77 0.91 0.98 1.09 1.09 1.04 0.97 0.85 0.74 0.73 0.78 0.72 0.69 0.66 0.64 0.58 0.51 0.45 0.39 0.33 0.26 0.16 0.06 0.03 0.01 0.00 0.00 0.00 0.00 0.00 0.00 0.00 0.00 0.01 0.01 0.01
0.05 0.04 0.08 0.14 0.18 0.25 0.36 0.35 0.40 0.40 0.48 0.58 0.68 0.75 0.83 0.87 0.92 0.88 0.78 0.79 0.76 0.72 0.72 0.66 0.55 0.46 0.37 0.29 0.20 0.13 0.10 0.06 0.03 0.00 0.00 0.00 0.00 0.00 0.00 0.00 0.00 0.00 0.00
0.00 0.00 0.00 0.02 0.07 0.20 0.28 0.27 0.30 0.30 0.33 0.38 0.40 0.37 0.42 0.42 0.49 0.50 0.48 0.51 0.53 0.53 0.50 0.47 0.45 0.41 0.38 0.34 0.26 0.19 0.15 0.10 0.05 0.01 0.00 0.00 0.00 0.00 0.00 0.00 0.00 0.00 0.00

GFSMA_prec_precacc12_141.txt.gz
Total_Precipitation_Accumulation
0.02 0.05 0.02 0.00 0.00 0.00 0.00 0.00 0.00 0.00 0.00 0.00 0.00 0.00 0.00 0.00 0.00 0.00 0.00 0.00 0.00 0.00 0.00 0.00 0.00 0.00 0.00 0.00 0.00 0.00 0.00 0.00 0.00 0.00 0.00 0.00 0.00 0.00 0.00 0.00 0.00 0.00 0.00
0.01 0.01 0.00 0.00 0.00 0.00 0.00 0.00 0.00 0.00 0.00 0.00 0.00 0.00 0.00 0.00 0.00 0.00 0.00 0.00 0.00 0.00 0.00 0.00 0.00 0.00 0.00 0.00 0.00 0.00 0.00 0.00 0.00 0.00 0.00 0.00 0.00 0.00 0.00 0.00 0.00 0.00 0.00
0.06 0.01 0.00 0.00 0.00 0.00 0.00 0.00 0.00 0.00 0.00 0.00 0.00 0.00 0.00 0.00 0.00 0.00 0.00 0.00 0.00 0.00 0.00 0.00 0.01 0.02 0.03 0.10 0.22 0.16 0.06 0.01 0.00 0.00 0.00 0.00 0.00 0.00 0.00 0.00 0.00 0.00 0.00
0.06 0.03 0.00 0.00 0.00 0.00 0.00 0.00 0.00 0.00 0.00 0.00 0.00 0.00 0.00 0.00 0.00 0.00 0.00 0.00 0.00 0.00 0.00 0.00 0.00 0.03 0.09 0.11 0.17 0.22 0.18 0.15 0.11 0.08 0.05 0.01 0.00 0.00 0.00 0.00 0.00 0.00 0.00
0.04 0.04 0.00 0.01 0.00 0.00 0.00 0.00 0.00 0.00 0.00 0.00 0.00 0.00 0.00 0.00 0.00 0.00 0.00 0.00 0.00 0.00 0.00 0.00 0.00 0.00 0.00 0.00 0.00 0.02 0.04 0.02 0.02 0.05 0.03 0.03 0.04 0.03 0.01 0.01 0.00 0.00 0.00
0.09 0.06 0.04 0.02 0.03 0.00 0.00 0.00 0.00 0.00 0.00 0.00 0.00 0.00 0.00 0.00 0.00 0.00 0.00 0.00 0.00 0.00 0.00 0.00 0.00 0.00 0.00 0.00 0.00 0.00 0.02 0.02 0.00 0.00 0.00 0.00 0.00 0.00 0.00 0.00 0.01 0.01 0.00
0.12 0.11 0.07 0.06 0.04 0.00 0.00 0.00 0.00 0.00 0.00 0.00 0.00 0.00 0.00 0.00 0.00 0.00 0.00 0.00 0.00 0.00 0.00 0.00 0.00 0.00 0.00 0.00 0.00 0.00 0.00 0.00 0.00 0.00 0.00 0.00 0.00 0.00 0.00 0.00 0.00 0.00 0.00
0.13 0.11 0.11 0.13 0.07 0.01 0.00 0.00 0.00 0.00 0.00 0.00 0.00 0.00 0.00 0.00 0.00 0.00 0.00 0.00 0.00 0.00 0.00 0.00 0.00 0.00 0.00 0.00 0.00 0.00 0.00 0.00 0.01 0.00 0.00 0.00 0.00 0.00 0.00 0.00 0.01 0.00 0.00
0.17 0.15 0.12 0.14 0.15 0.07 0.03 0.00 0.00 0.00 0.00 0.00 0.00 0.00 0.00 0.00 0.00 0.00 0.00 0.00 0.00 0.00 0.00 0.00 0.00 0.00 0.00 0.00 0.00 0.00 0.00 0.00 0.00 0.00 0.00 0.01 0.01 0.01 0.01 0.01 0.00 0.00 0.00
0.08 0.11 0.16 0.15 0.13 0.12 0.06 0.02 0.00 0.00 0.00 0.00 0.00 0.00 0.00 0.00 0.00 0.00 0.00 0.00 0.00 0.00 0.00 0.00 0.00 0.00 0.00 0.00 0.00 0.00 0.00 0.00 0.00 0.00 0.00 0.00 0.01 0.01 0.02 0.02 0.02 0.01 0.00
0.06 0.08 0.15 0.22 0.14 0.12 0.11 0.07 0.02 0.00 0.00 0.00 0.00 0.00 0.00 0.00 0.00 0.00 0.00 0.00 0.00 0.00 0.00 0.00 0.00 0.00 0.00 0.00 0.00 0.00 0.00 0.00 0.00 0.00 0.01 0.01 0.01 0.02 0.03 0.04 0.04 0.02 0.01
0.02 0.08 0.12 0.23 0.29 0.23 0.16 0.15 0.10 0.05 0.02 0.01 0.00 0.00 0.00 0.00 0.00 0.00 0.00 0.00 0.00 0.00 0.00 0.00 0.00 0.00 0.00 0.00 0.00 0.00 0.00 0.00 0.00 0.00 0.00 0.01 0.01 0.01 0.02 0.04 0.03 0.01 0.01
0.03 0.05 0.09 0.14 0.18 0.14 0.13 0.14 0.14 0.10 0.06 0.03 0.01 0.00 0.00 0.00 0.00 0.00 0.00 0.00 0.00 0.00 0.00 0.00 0.00 0.00 0.00 0.00 0.00 0.00 0.00 0.00 0.00 0.00 0.01 0.01 0.01 0.01 0.02 0.03 0.02 0.01 0.00
0.00 0.01 0.05 0.10 0.11 0.09 0.05 0.04 0.05 0.06 0.06 0.05 0.03 0.02 0.01 0.01 0.01 0.01 0.00 0.00 0.00 0.00 0.00 0.00 0.00 0.00 0.00 0.00 0.00 0.00 0.00 0.00 0.00 0.00 0.00 0.01 0.01 0.01 0.01 0.01 0.01 0.00 0.00
0.00 0.01 0.05 0.17 0.16 0.11 0.07 0.05 0.04 0.05 0.06 0.04 0.02 0.03 0.03 0.02 0.02 0.01 0.01 0.00 0.01 0.01 0.00 0.00 0.00 0.00 0.01 0.01 0.00 0.00 0.00 0.00 0.00 0.00 0.00 0.01 0.00 0.00 0.00 0.00 0.00 0.00 0.00
0.05 0.02 0.04 0.17 0.33 0.20 0.10 0.09 0.06 0.04 0.06 0.05 0.03 0.03 0.06 0.06 0.06 0.06 0.07 0.04 0.04 0.07 0.04 0.02 0.04 0.04 0.04 0.02 0.02 0.01 0.00 0.00 0.00 0.00 0.00 0.01 0.01 0.00 0.00 0.00 0.00 0.00 0.00
0.11 0.11 0.13 0.15 0.23 0.33 0.22 0.15 0.09 0.07 0.05 0.04 0.03 0.02 0.03 0.10 0.09 0.10 0.08 0.08 0.08 0.11 0.12 0.11 0.08 0.05 0.05 0.02 0.02 0.01 0.01 0.00 0.00 0.00 0.00 0.00 0.00 0.00 0.00 0.00 0.00 0.00 0.00
0.14 0.22 0.23 0.28 0.28 0.31 0.32 0.25 0.16 0.10 0.07 0.05 0.06 0.04 0.06 0.08 0.07 0.08 0.10 0.11 0.14 0.17 0.17 0.14 0.12 0.08 0.05 0.03 0.03 0.02 0.02 0.01 0.00 0.01 0.00 0.00 0.00 0.00 0.00 0.00 0.00 0.00 0.00
0.13 0.17 0.25 0.29 0.28 0.35 0.38 0.32 0.23 0.21 0.20 0.17 0.15 0.13 0.16 0.20 0.17 0.20 0.25 0.28 0.31 0.31 0.25 0.20 0.15 0.08 0.05 0.04 0.05 0.05 0.03 0.02 0.01 0.01 0.01 0.01 0.00 0.00 0.00 0.00 0.00 0.00 0.00
0.41 0.17 0.19 0.33 0.51 0.45 0.42 0.48 0.43 0.31 0.24 0.22 0.21 0.22 0.25 0.26 0.25 0.29 0.33 0.30 0.32 0.28 0.25 0.22 0.17 0.12 0.08 0.06 0.11 0.13 0.11 0.09 0.10 0.13 0.12 0.08 0.03 0.01 0.00 0.01 0.01 0.00 0.00
0.55 0.48 0.27 0.28 0.39 0.59 0.75 0.77 0.68 0.60 0.52 0.37 0.33 0.32 0.31 0.36 0.39 0.42 0.43 0.36 0.33 0.33 0.34 0.30 0.26 0.23 0.16 0.14 0.14 0.16 0.23 0.24 0.22 0.16 0.13 0.10 0.05 0.02 0.01 0.01 0.00 0.00 0.00
0.70 0.91 0.61 0.41 0.30 0.37 0.50 0.61 0.71 0.71 0.78 0.82 0.68 0.58 0.56 0.66 0.59 0.61 0.58 0.56 0.56 0.58 0.56 0.51 0.40 0.31 0.20 0.14 0.15 0.24 0.31 0.37 0.34 0.15 0.09 0.13 0.10 0.06 0.02 0.01 0.02 0.00 0.00
0.87 1.06 0.89 0.59 0.54 0.47 0.49 0.45 0.52 0.51 0.51 0.58 0.57 0.51 0.47 0.48 0.57 0.62 0.69 0.78 0.85 0.96 0.93 0.83 0.73 0.52 0.40 0.32 0.37 0.49 0.49 0.42 0.34 0.21 0.17 0.20 0.12 0.06 0.03 0.03 0.03 0.01 0.00
1.04 0.93 0.72 0.78 0.70 0.80 0.78 0.55 0.57 0.52 0.50 0.50 0.58 0.61 0.63 0.62 0.70 0.83 0.88 0.94 0.94 0.94 0.91 0.88 0.91 0.84 0.76 0.67 0.62 0.53 0.44 0.42 0.39 0.26 0.18 0.15 0.09 0.05 0.05 0.05 0.06 0.03 0.02
0.49 0.53 0.39 0.40 0.45 0.43 0.48 0.38 0.30 0.24 0.27 0.31 0.38 0.43 0.51 0.60 0.73 0.81 0.77 0.81 0.82 0.82 0.86 0.82 0.72 0.66 0.63 0.58 0.50 0.46 0.42 0.36 0.31 0.24 0.19 0.18 0.13 0.11 0.11 0.09 0.06 0.06 0.04
0.22 0.17 0.12 0.07 0.08 0.05 0.07 0.07 0.05 0.06 0.12 0.20 0.22 0.22 0.27 0.30 0.39 0.46 0.46 0.50 0.53 0.53 0.53 0.51 0.51 0.49 0.48 0.48 0.46 0.42 0.41 0.39 0.35 0.31 0.26 0.27 0.19 0.19 0.19 0.12 0.07 0.05 0.04

GFSMA_prec_precacc12_144.txt.gz
Total_Precipitation_Accumulation
0.05 0.07 0.04 0.01 0.00 0.00 0.00 0.00 0.00 0.00 0.00 0.00 0.00 0.00 0.00 0.00 0.00 0.00 0.00 0.00 0.00 0.00 0.00 0.00 0.00 0.00 0.00 0.00 0.00 0.00 0.00 0.00 0.00 0.00 0.00 0.00 0.00 0.00 0.00 0.00 0.00 0.00 0.00
0.02 0.03 0.00 0.00 0.00 0.00 0.00 0.00 0.00 0.00 0.00 0.00 0.00 0.00 0.00 0.00 0.00 0.00 0.00 0.00 0.00 0.00 0.00 0.00 0.00 0.00 0.00 0.00 0.00 0.00 0.00 0.00 0.00 0.00 0.00 0.00 0.00 0.00 0.00 0.00 0.00 0.00 0.00
0.06 0.03 0.02 0.00 0.00 0.00 0.00 0.00 0.00 0.00 0.00 0.00 0.00 0.00 0.00 0.00 0.00 0.00 0.00 0.00 0.00 0.00 0.00 0.00 0.01 0.02 0.03 0.08 0.20 0.17 0.06 0.01 0.00 0.00 0.00 0.00 0.00 0.00 0.00 0.00 0.01 0.00 0.00
0.06 0.06 0.03 0.00 0.00 0.00 0.00 0.00 0.00 0.00 0.00 0.00 0.00 0.00 0.00 0.00 0.00 0.00 0.00 0.00 0.00 0.00 0.00 0.00 0.00 0.02 0.04 0.05 0.08 0.08 0.04 0.05 0.05 0.03 0.01 0.00 0.00 0.01 0.01 0.01 0.00 0.00 0.01
0.04 0.05 0.04 0.02 0.01 0.00 0.00 0.00 0.00 0.00 0.00 0.00 0.00 0.00 0.00 0.00 0.00 0.00 0.00 0.00 0.00 0.00 0.00 0.00 0.00 0.00 0.00 0.00 0.00 0.00 0.00 0.00 0.00 0.01 0.00 0.01 0.02 0.01 0.00 0.00 0.00 0.00 0.00
0.11 0.11 0.06 0.04 0.08 0.01 0.00 0.00 0.00 0.00 0.00 0.00 0.00 0.00 0.00 0.00 0.00 0.00 0.00 0.00 0.00 0.00 0.00 0.00 0.00 0.00 0.00 0.00 0.00 0.00 0.00 0.00 0.00 0.00 0.00 0.00 0.00 0.00 0.00 0.00 0.00 0.00 0.00
0.10 0.12 0.08 0.06 0.09 0.03 0.00 0.00 0.00 0.00 0.00 0.00 0.00 0.00 0.00 0.00 0.00 0.00 0.00 0.00 0.00 0.00 0.00 0.00 0.00 0.00 0.00 0.00 0.00 0.00 0.00 0.00 0.00 0.00 0.00 0.00 0.00 0.00 0.00 0.00 0.00 0.00 0.00
0.09 0.06 0.05 0.08 0.07 0.03 0.01 0.00 0.00 0.00 0.00 0.00 0.00 0.00 0.00 0.00 0.00 0.00 0.00 0.00 0.00 0.00 0.00 0.00 0.00 0.00 0.00 0.00 0.00 0.00 0.00 0.00 0.01 0.00 0.00 0.00 0.00 0.00 0.00 0.00 0.00 0.00 0.00
0.14 0.10 0.07 0.07 0.11 0.09 0.04 0.01 0.00 0.00 0.00 0.00 0.00 0.00 0.00 0.00 0.00 0.00 0.00 0.00 0.00 0.00 0.00 0.00 0.00 0.00 0.00 0.00 0.00 0.00 0.00 0.00 0.00 0.00 0.00 0.01 0.01 0.01 0.01 0.01 0.00 0.01 0.00
0.05 0.07 0.14 0.14 0.08 0.12 0.09 0.04 0.01 0.00 0.00 0.00 0.00 0.00 0.00 0.00 0.00 0.00 0.00 0.00 0.00 0.00 0.00 0.00 0.00 0.00 0.00 0.00 0.00 0.00 0.00 0.00 0.00 0.00 0.00 0.01 0.01 0.01 0.01 0.02 0.02 0.02 0.01
0.05 0.07 0.06 0.11 0.11 0.09 0.12 0.12 0.08 0.03 0.00 0.00 0.00 0.00 0.00 0.00 0.00 0.00 0.00 0.00 0.00 0.00 0.00 0.00 0.00 0.00 0.00 0.00 0.00 0.00 0.00 0.00 0.00 0.00 0.00 0.01 0.01 0.01 0.01 0.03 0.05 0.03 0.02
0.02 0.08 0.12 0.11 0.09 0.10 0.15 0.19 0.17 0.12 0.05 0.02 0.00 0.00 0.00 0.00 0.00 0.00 0.00 0.00 0.00 0.00 0.00 0.00 0.00 0.00 0.00 0.00 0.00 0.00 0.00 0.00 0.00 0.00 0.00 0.01 0.01 0.01 0.01 0.03 0.02 0.01 0.01
0.03 0.04 0.09 0.13 0.13 0.09 0.09 0.17 0.21 0.17 0.12 0.05 0.02 0.01 0.01 0.00 0.00 0.00 0.00 0.00 0.00 0.00 0.00 0.00 0.00 0.00 0.00 0.00 0.00 0.00 0.00 0.00 0.00 0.00 0.00 0.00 0.00 0.01 0.01 0.02 0.01 0.01 0.01
0.00 0.01 0.05 0.11 0.14 0.15 0.14 0.12 0.11 0.12 0.13 0.12 0.08 0.05 0.03 0.02 0.01 0.02 0.03 0.03 0.05 0.03 0.00 0.00 0.00 0.00 0.00 0.00 0.00 0.00 0.00 0.00 0.00 0.00 0.00 0.00 0.00 0.00 0.00 0.00 0.00 0.00 0.00
0.00 0.00 0.03 0.07 0.11 0.16 0.17 0.16 0.14 0.16 0.14 0.10 0.09 0.11 0.11 0.08 0.13 0.12 0.11 0.13 0.14 0.10 0.03 0.00 0.00 0.00 0.01 0.01 0.00 0.00 0.00 0.00 0.00 0.00 0.00 0.00 0.00 0.00 0.00 0.00 0.00 0.00 0.00
0.02 0.01 0.02 0.05 0.10 0.13 0.15 0.17 0.15 0.12 0.14 0.12 0.10 0.09 0.08 0.08 0.09 0.12 0.15 0.16 0.17 0.20 0.12 0.02 0.04 0.04 0.04 0.02 0.02 0.01 0.01 0.00 0.00 0.01 0.01 0.01 0.00 0.00 0.00 0.00 0.00 0.00 0.00
0.03 0.04 0.04 0.04 0.07 0.11 0.12 0.15 0.14 0.12 0.09 0.07 0.09 0.08 0.07 0.07 0.05 0.07 0.10 0.13 0.15 0.19 0.19 0.12 0.08 0.06 0.05 0.02 0.02 0.01 0.01 0.01 0.00 0.01 0.01 0.01 0.00 0.00 0.00 0.00 0.00 0.00 0.00
0.02 0.04 0.03 0.06 0.07 0.10 0.16 0.23 0.22 0.15 0.09 0.06 0.07 0.07 0.06 0.06 0.05 0.07 0.10 0.11 0.14 0.18 0.20 0.16 0.12 0.08 0.05 0.03 0.03 0.02 0.02 0.01 0.01 0.01 0.01 0.01 0.01 0.00 0.00 0.00 0.00 0.00 0.00
0.03 0.01 0.01 0.03 0.04 0.13 0.15 0.19 0.21 0.24 0.19 0.11 0.10 0.12 0.11 0.13 0.12 0.16 0.21 0.23 0.27 0.30 0.25 0.22 0.16 0.09 0.05 0.04 0.06 0.06 0.05 0.03 0.02 0.02 0.02 0.02 0.02 0.02 0.02 0.01 0.01 0.00 0.00
0.14 0.08 0.06 0.15 0.29 0.29 0.29 0.33 0.35 0.33 0.26 0.25 0.22 0.21 0.20 0.19 0.18 0.21 0.26 0.25 0.30 0.28 0.26 0.23 0.21 0.16 0.12 0.09 0.13 0.14 0.11 0.10 0.11 0.14 0.15 0.10 0.07 0.05 0.04 0.03 0.02 0.01 0.01
0.42 0.46 0.24 0.20 0.26 0.46 0.60 0.66 0.62 0.58 0.53 0.44 0.38 0.33 0.28 0.33 0.35 0.38 0.40 0.34 0.37 0.41 0.47 0.49 0.43 0.37 0.29 0.23 0.21 0.20 0.33 0.33 0.30 0.22 0.18 0.15 0.11 0.08 0.06 0.05 0.05 0.03 0.02
0.57 0.80 0.64 0.46 0.36 0.35 0.48 0.57 0.66 0.68 0.76 0.79 0.68 0.57 0.53 0.62 0.55 0.59 0.56 0.53 0.54 0.58 0.58 0.54 0.45 0.38 0.24 0.16 0.18 0.31 0.40 0.47 0.44 0.19 0.12 0.18 0.16 0.16 0.09 0.05 0.05 0.04 0.02
0.74 0.91 0.67 0.55 0.52 0.46 0.48 0.43 0.51 0.50 0.51 0.57 0.56 0.49 0.45 0.47 0.52 0.50 0.58 0.60 0.64 0.78 0.81 0.76 0.70 0.53 0.42 0.35 0.41 0.52 0.51 0.44 0.37 0.23 0.20 0.24 0.14 0.07 0.04 0.03 0.06 0.06 0.05
0.94 0.93 0.65 0.67 0.61 0.71 0.67 0.47 0.47 0.39 0.36 0.36 0.40 0.45 0.48 0.48 0.49 0.49 0.45 0.46 0.47 0.53 0.62 0.71 0.82 0.80 0.74 0.67 0.64 0.57 0.48 0.46 0.42 0.27 0.19 0.17 0.09 0.06 0.05 0.06 0.12 0.11 0.09
0.54 0.65 0.47 0.43 0.52 0.50 0.64 0.57 0.49 0.37 0.24 0.22 0.29 0.31 0.30 0.27 0.30 0.30 0.25 0.31 0.43 0.56 0.68 0.68 0.64 0.61 0.60 0.56 0.49 0.46 0.42 0.36 0.31 0.24 0.19 0.18 0.13 0.11 0.11 0.09 0.08 0.13 0.12
0.35 0.41 0.36 0.26 0.27 0.22 0.26 0.22 0.22 0.16 0.10 0.08 0.06 0.07 0.09 0.10 0.15 0.16 0.18 0.25 0.35 0.38 0.36 0.38 0.42 0.44 0.45 0.44 0.43 0.42 0.41 0.39 0.35 0.31 0.26 0.27 0.19 0.19 0.20 0.12 0.08 0.07 0.09

GFSMA_prec_precacc12_150.txt.gz
Total_Precipitation_Accumulation
0.05 0.07 0.04 0.01 0.00 0.00 0.00 0.00 0.00 0.00 0.00 0.00 0.00 0.00 0.00 0.00 0.00 0.00 0.00 0.00 0.00 0.00 0.00 0.00 0.00 0.00 0.00 0.00 0.00 0.00 0.00 0.00 0.00 0.00 0.00 0.00 0.00 0.00 0.00 0.00 0.00 0.00 0.00
0.02 0.03 0.00 0.00 0.00 0.00 0.00 0.00 0.00 0.00 0.00 0.00 0.00 0.00 0.00 0.00 0.00 0.00 0.00 0.00 0.00 0.00 0.00 0.00 0.00 0.00 0.00 0.00 0.00 0.00 0.00 0.00 0.00 0.00 0.00 0.00 0.00 0.00 0.00 0.00 0.00 0.01 0.00
0.08 0.05 0.03 0.00 0.00 0.00 0.00 0.00 0.00 0.00 0.00 0.00 0.00 0.00 0.00 0.00 0.00 0.00 0.00 0.00 0.00 0.00 0.00 0.00 0.00 0.00 0.00 0.01 0.06 0.06 0.03 0.04 0.03 0.03 0.03 0.03 0.01 0.01 0.00 0.02 0.03 0.01 0.01
0.10 0.13 0.09 0.01 0.06 0.05 0.02 0.00 0.00 0.00 0.00 0.00 0.00 0.00 0.00 0.00 0.00 0.00 0.00 0.00 0.00 0.00 0.00 0.00 0.00 0.00 0.01 0.02 0.03 0.02 0.01 0.00 0.00 0.01 0.00 0.00 0.02 0.06 0.06 0.03 0.00 0.00 0.01
0.08 0.10 0.10 0.08 0.12 0.07 0.03 0.00 0.00 0.00 0.00 0.00 0.00 0.00 0.00 0.00 0.00 0.00 0.00 0.00 0.00 0.00 0.00 0.00 0.00 0.00 0.00 0.00 0.00 0.00 0.00 0.00 0.00 0.00 0.00 0.00 0.02 0.02 0.01 0.00 0.00 0.00 0.00
0.18 0.22 0.14 0.09 0.18 0.10 0.03 0.01 0.00 0.00 0.00 0.00 0.00 0.00 0.00 0.00 0.00 0.00 0.00 0.00 0.00 0.00 0.00 0.00 0.00 0.00 0.00 0.00 0.00 0.00 0.00 0.00 0.00 0.00 0.00 0.00 0.00 0.00 0.00 0.00 0.00 0.00 0.00
0.12 0.20 0.13 0.09 0.15 0.08 0.04 0.07 0.03 0.00 0.00 0.01 0.00 0.00 0.00 0.00 0.00 0.00 0.00 0.00 0.00 0.00 0.00 0.00 0.00 0.00 0.00 0.00 0.00 0.00 0.00 0.00 0.00 0.00 0.00 0.00 0.00 0.00 0.00 0.00 0.00 0.00 0.00
0.05 0.05 0.07 0.09 0.11 0.10 0.08 0.06 0.06 0.02 0.00 0.01 0.01 0.00 0.00 0.00 0.00 0.00 0.00 0.00 0.00 0.00 0.00 0.00 0.00 0.00 0.00 0.00 0.00 0.00 0.00 0.00 0.00 0.01 0.01 0.01 0.00 0.00 0.00 0.00 0.00 0.01 0.01
0.03 0.05 0.08 0.12 0.14 0.14 0.11 0.07 0.10 0.07 0.03 0.02 0.02 0.01 0.00 0.00 0.00 0.00 0.00 0.00 0.00 0.00 0.00 0.00 0.00 0.00 0.00 0.00 0.00 0.00 0.00 0.00 0.00 0.00 0.01 0.02 0.02 0.01 0.01 0.01 0.01 0.01 0.02
0.02 0.04 0.10 0.16 0.14 0.17 0.16 0.12 0.10 0.10 0.08 0.06 0.04 0.02 0.01 0.00 0.00 0.00 0.00 0.00 0.00 0.00 0.00 0.00 0.00 0.00 0.00 0.00 0.00 0.00 0.00 0.00 0.00 0.00 0.00 0.01 0.01 0.02 0.02 0.02 0.02 0.02 0.03
0.01 0.03 0.04 0.10 0.14 0.16 0.21 0.26 0.21 0.14 0.10 0.09 0.08 0.10 0.05 0.01 0.00 0.00 0.00 0.00 0.00 0.00 0.00 0.00 0.00 0.00 0.00 0.00 0.00 0.00 0.00 0.00 0.00 0.00 0.00 0.00 0.01 0.01 0.01 0.02 0.02 0.03 0.03
0.00 0.03 0.09 0.09 0.09 0.11 0.18 0.28 0.30 0.28 0.20 0.15 0.11 0.11 0.08 0.05 0.03 0.01 0.00 0.00 0.00 0.00 0.00 0.00 0.00 0.00 0.00 0.00 0.00 0.00 0.00 0.00 0.00 0.00 0.00 0.00 0.00 0.01 0.01 0.01 0.01 0.02 0.02
0.01 0.01 0.05 0.10 0.12 0.09 0.09 0.18 0.26 0.31 0.32 0.22 0.15 0.11 0.11 0.08 0.08 0.06 0.03 0.01 0.00 0.00 0.00 0.00 0.00 0.00 0.00 0.00 0.00 0.00 0.00 0.00 0.00 0.00 0.00 0.00 0.01 0.01 0.00 0.00 0.01 0.01 0.01
0.00 0.01 0.02 0.07 0.12 0.16 0.15 0.15 0.16 0.20 0.29 0.36 0.31 0.20 0.14 0.11 0.12 0.12 0.10 0.10 0.12 0.08 0.05 0.02 0.00 0.00 0.00 0.00 0.00 0.00 0.00 0.00 0.00 0.00 0.00 0.00 0.00 0.00 0.00 0.00 0.00 0.00 0.00
0.00 0.00 0.01 0.04 0.09 0.14 0.17 0.18 0.17 0.21 0.23 0.21 0.23 0.28 0.29 0.25 0.28 0.31 0.32 0.30 0.32 0.35 0.24 0.10 0.07 0.08 0.12 0.13 0.10 0.07 0.02 0.01 0.00 0.00 0.00 0.00 0.00 0.00 0.00 0.00 0.00 0.00 0.00
0.00 0.00 0.01 0.03 0.07 0.10 0.15 0.18 0.17 0.15 0.23 0.26 0.23 0.19 0.19 0.20 0.24 0.31 0.39 0.43 0.44 0.43 0.39 0.09 0.08 0.09 0.11 0.11 0.10 0.09 0.04 0.01 0.01 0.01 0.01 0.00 0.00 0.00 0.00 0.00 0.00 0.00 0.00
0.00 0.00 0.01 0.03 0.04 0.08 0.10 0.11 0.13 0.14 0.13 0.11 0.14 0.14 0.14 0.17 0.17 0.16 0.18 0.24 0.34 0.41 0.42 0.14 0.07 0.06 0.10 0.08 0.06 0.03 0.01 0.01 0.00 0.01 0.01 0.01 0.00 0.00 0.00 0.00 0.00 0.00 0.01
0.00 0.00 0.00 0.04 0.06 0.08 0.12 0.14 0.14 0.13 0.13 0.11 0.12 0.12 0.11 0.13 0.12 0.12 0.14 0.14 0.16 0.18 0.23 0.21 0.10 0.05 0.06 0.05 0.04 0.03 0.03 0.01 0.01 0.01 0.02 0.01 0.01 0.02 0.03 0.03 0.02 0.01 0.01
0.00 0.00 0.00 0.00 0.02 0.06 0.10 0.13 0.12 0.14 0.13 0.11 0.12 0.14 0.11 0.13 0.13 0.12 0.13 0.13 0.12 0.11 0.15 0.21 0.21 0.09 0.04 0.04 0.05 0.05 0.03 0.03 0.02 0.03 0.06 0.11 0.16 0.19 0.17 0.11 0.07 0.04 0.03
0.01 0.01 0.01 0.01 0.01 0.02 0.03 0.07 0.12 0.16 0.11 0.11 0.11 0.10 0.11 0.13 0.15 0.16 0.16 0.17 0.20 0.30 0.40 0.40 0.35 0.18 0.07 0.05 0.12 0.16 0.18 0.18 0.19 0.24 0.31 0.24 0.18 0.13 0.07 0.05 0.04 0.03 0.03
0.08 0.12 0.08 0.07 0.06 0.06 0.04 0.05 0.06 0.08 0.12 0.17 0.19 0.18 0.17 0.23 0.33 0.35 0.32 0.32 0.45 0.57 0.61 0.62 0.51 0.36 0.29 0.25 0.23 0.20 0.26 0.24 0.23 0.18 0.17 0.15 0.12 0.10 0.08 0.08 0.08 0.07 0.07
0.23 0.20 0.17 0.17 0.16 0.10 0.10 0.07 0.07 0.08 0.09 0.11 0.14 0.20 0.25 0.35 0.34 0.36 0.32 0.40 0.40 0.46 0.52 0.56 0.47 0.39 0.30 0.22 0.18 0.24 0.30 0.36 0.36 0.15 0.11 0.17 0.16 0.16 0.09 0.06 0.06 0.08 0.07
0.11 0.13 0.11 0.07 0.06 0.12 0.17 0.13 0.20 0.16 0.16 0.17 0.16 0.11 0.11 0.17 0.26 0.24 0.32 0.33 0.32 0.38 0.39 0.36 0.36 0.32 0.30 0.25 0.25 0.24 0.23 0.22 0.21 0.17 0.16 0.20 0.12 0.07 0.04 0.03 0.07 0.06 0.07
0.39 0.55 0.29 0.26 0.27 0.39 0.35 0.23 0.26 0.18 0.12 0.08 0.08 0.11 0.15 0.15 0.16 0.16 0.13 0.16 0.16 0.17 0.18 0.16 0.17 0.19 0.21 0.21 0.25 0.24 0.18 0.18 0.18 0.14 0.14 0.15 0.08 0.05 0.05 0.06 0.12 0.10 0.08
0.44 0.59 0.39 0.36 0.43 0.39 0.50 0.50 0.43 0.31 0.16 0.11 0.13 0.14 0.13 0.12 0.19 0.16 0.08 0.08 0.08 0.08 0.12 0.12 0.09 0.08 0.08 0.05 0.03 0.04 0.03 0.03 0.05 0.07 0.08 0.09 0.07 0.09 0.11 0.09 0.08 0.13 0.11
0.35 0.42 0.37 0.28 0.31 0.26 0.30 0.38 0.42 0.38 0.21 0.13 0.10 0.12 0.14 0.10 0.14 0.12 0.07 0.08 0.09 0.08 0.06 0.05 0.04 0.02 0.01 0.00 0.00 0.00 0.00 0.00 0.01 0.02 0.04 0.08 0.08 0.13 0.18 0.12 0.08 0.07 0.09